KC5DAQ-22 Weather Reports


Display with metric or nautical units.
time (UTC)temp
F
wind
direction
speed
MPH
gust
MPH
rain 1hr
in
rain 24hr
in
rain mn
in
humidity
%
barometer
mb
20260903055603 85 203 3.0 7.0 0.00 0.00 0.00 85 1012.3
20260903055502 85 180 4.0 7.0 0.00 0.00 0.00 85 1012.3
20260903055403 85 147 4.0 10.0 0.00 0.00 0.00 85 1012.4
20260903055306 85 183 4.0 10.0 0.00 0.00 0.00 85 1012.3
20260903055202 85 189 4.0 10.0 0.00 0.00 0.00 85 1012.3
20260903055103 85 180 3.0 10.0 0.00 0.00 0.00 85 1012.4
20260903055002 85 188 3.0 10.0 0.00 0.00 0.00 85 1012.3
20260903054902 85 193 4.0 10.0 0.00 0.00 0.00 85 1012.4
20260903054803 85 189 4.0 10.0 0.00 0.00 0.00 85 1012.4
20260903054702 85 149 5.0 10.0 0.00 0.00 0.00 85 1012.4
20260903054602 85 152 5.0 10.0 0.00 0.00 0.00 85 1012.4
20260903054503 85 175 5.0 10.0 0.00 0.00 0.00 85 1012.5
20260903054405 85 172 5.0 10.0 0.00 0.00 0.00 85 1012.5
20260903054303 85 186 4.0 10.0 0.00 0.00 0.00 85 1012.5
20260903054202 85 166 4.0 10.0 0.00 0.00 0.00 85 1012.5
20260903054103 85 188 5.0 12.0 0.00 0.00 0.00 85 1012.5
20260903054003 85 176 5.0 12.0 0.00 0.00 0.00 85 1012.5
20260903053902 85 199 4.0 12.0 0.00 0.00 0.00 85 1012.5
20260903053803 85 223 3.0 12.0 0.00 0.00 0.00 85 1012.6
20260903053703 85 207 4.0 12.0 0.00 0.00 0.00 85 1012.5
20260903053602 85 175 4.0 12.0 0.00 0.00 0.00 85 1012.5
20260903053504 85 224 4.0 12.0 0.00 0.00 0.00 85 1012.6
20260903053405 85 227 4.0 12.0 0.00 0.00 0.00 85 1012.6
20260903053302 85 183 6.0 12.0 0.00 0.00 0.00 85 1012.5
20260903053202 85 195 6.0 12.0 0.00 0.00 0.00 85 1012.5
20260903053102 85 214 5.0 9.0 0.00 0.00 0.00 85 1012.4
20260903053003 85 183 5.0 9.0 0.00 0.00 0.00 85 1012.5
20260903052902 85 197 4.0 9.0 0.00 0.00 0.00 85 1012.5
20260903052802 85 172 3.0 10.0 0.00 0.00 0.00 85 1012.3
20260903052703 85 197 2.0 10.0 0.00 0.00 0.00 85 1012.4
20260903052603 85 183 2.0 10.0 0.00 0.00 0.00 85 1012.4
20260903052504 85 165 3.0 10.0 0.00 0.00 0.00 85 1012.4
20260903052403 85 178 3.0 10.0 0.00 0.00 0.00 85 1012.4
20260903052306 85 162 3.0 10.0 0.00 0.00 0.00 85 1012.4
20260903052202 85 165 3.0 10.0 0.00 0.00 0.00 85 1012.4
20260903052102 85 164 3.0 10.0 0.00 0.00 0.00 85 1012.4
20260903052003 85 186 4.0 10.0 0.00 0.00 0.00 85 1012.4
20260903051902 85 133 6.0 10.0 0.00 0.00 0.00 85 1012.4
20260903051802 85 171 5.0 10.0 0.00 0.00 0.00 85 1012.5
20260903051703 85 148 4.0 9.0 0.00 0.00 0.00 85 1012.4
20260903051602 85 207 4.0 9.0 0.00 0.00 0.00 85 1012.5
20260903051500 85 166 4.0 9.0 0.00 0.00 0.00 85 1012.4
20260903051358 85 186 4.0 9.0 0.00 0.00 0.00 85 1012.4
20260903051257 85 182 4.0 7.0 0.00 0.00 0.00 85 1012.4
20260903051155 85 111 4.0 7.0 0.00 0.00 0.00 85 1012.4
20260903051054 85 197 3.0 7.0 0.00 0.00 0.00 85 1012.4
20260903050954 85 188 2.0 7.0 0.00 0.00 0.00 85 1012.4
20260903050851 85 202 4.0 7.0 0.00 0.00 0.00 85 1012.3
20260903050751 85 224 4.0 7.0 0.00 0.00 0.00 85 1012.4
20260903050648 85 190 4.0 7.0 0.00 0.00 0.00 85 1012.4
20260903050547 85 176 4.0 7.0 0.00 0.00 0.00 85 1012.4
20260903050443 85 203 3.0 7.0 0.00 0.00 0.00 85 1012.4
20260903050340 85 192 3.0 7.0 0.00 0.00 0.00 85 1012.4
20260903050237 85 189 3.0 9.0 0.00 0.00 0.00 85 1012.4
20260903050137 85 206 3.0 9.0 0.00 0.00 0.00 85 1012.4
20260903050035 85 180 4.0 9.0 0.00 0.00 0.00 85 1012.4
20260903045932 85 189 4.0 9.0 0.00 0.00 0.00 85 1012.5
20260903045831 85 182 4.0 9.0 0.00 0.00 0.00 85 1012.5
20260903045731 85 155 3.0 9.0 0.00 0.00 0.00 85 1012.4
20260903045631 85 207 2.0 11.0 0.00 0.00 0.00 85 1012.4
20260903045532 85 175 4.0 11.0 0.00 0.00 0.00 85 1012.5
20260903045431 85 185 5.0 11.0 0.00 0.00 0.00 85 1012.4
20260903045331 85 169 4.0 11.0 0.00 0.00 0.00 85 1012.4
20260903045233 85 171 3.0 11.0 0.00 0.00 0.00 85 1012.4
20260903045131 85 159 4.0 11.0 0.00 0.00 0.00 85 1012.4
20260903045031 85 149 5.0 11.0 0.00 0.00 0.00 85 1012.4
20260903044931 85 85 4.0 11.0 0.00 0.00 0.00 85 1012.5
20260903044832 85 206 5.0 11.0 0.00 0.00 0.00 85 1012.5
20260903044730 85 203 6.0 11.0 0.00 0.00 0.00 85 1012.5
20260903044629 85 197 4.0 9.0 0.00 0.00 0.00 85 1012.5
20260903044527 85 154 2.0 9.0 0.00 0.00 0.00 85 1012.5
20260903044426 85 165 3.0 12.0 0.00 0.00 0.00 85 1012.5
20260903044325 85 186 4.0 12.0 0.00 0.00 0.00 85 1012.5
20260903044224 85 196 3.0 12.0 0.00 0.00 0.00 85 1012.4
20260903044123 85 219 3.0 12.0 0.00 0.00 0.00 86 1012.5
20260903044019 85 193 4.0 12.0 0.00 0.00 0.00 85 1012.4
20260903043918 85 152 4.0 12.0 0.00 0.00 0.00 86 1012.4
20260903043818 85 149 3.0 12.0 0.00 0.00 0.00 86 1012.4
20260903043716 85 185 4.0 12.0 0.00 0.00 0.00 86 1012.4
20260903043615 85 197 6.0 12.0 0.00 0.00 0.00 86 1012.4
20260903043512 85 213 6.0 12.0 0.00 0.00 0.00 86 1012.4
20260903043410 85 140 5.0 10.0 0.00 0.00 0.00 86 1012.4
20260903043305 85 123 4.0 9.0 0.00 0.00 0.00 86 1012.3
20260903043204 85 154 3.0 6.0 0.00 0.00 0.00 86 1012.4
20260903043103 85 130 3.0 6.0 0.00 0.00 0.00 86 1012.4
20260903043005 85 161 3.0 6.0 0.00 0.00 0.00 86 1012.4
20260903042904 85 162 3.0 6.0 0.00 0.00 0.00 86 1012.4
20260903042803 85 121 3.0 9.0 0.00 0.00 0.00 86 1012.4
20260903042703 85 116 3.0 9.0 0.00 0.00 0.00 86 1012.3
20260903042605 85 127 3.0 9.0 0.00 0.00 0.00 86 1012.4
20260903042504 85 114 2.0 9.0 0.00 0.00 0.00 86 1012.4
20260903042401 85 118 2.0 9.0 0.00 0.00 0.00 86 1012.4
20260903042305 85 149 2.0 10.0 0.00 0.00 0.00 86 1012.4
20260903042203 85 109 2.0 10.0 0.00 0.00 0.00 86 1012.4
20260903042102 85 131 3.0 10.0 0.00 0.00 0.00 86 1012.4
20260903042003 85 99 4.0 10.0 0.00 0.00 0.00 86 1012.5
20260903041903 85 159 4.0 10.0 0.00 0.00 0.00 86 1012.4
20260903041803 85 155 3.0 10.0 0.00 0.00 0.00 85 1012.5
20260903041702 85 89 4.0 10.0 0.00 0.00 0.00 85 1012.4
20260903041602 85 34 5.0 10.0 0.00 0.00 0.00 85 1012.4
20260903041503 85 141 4.0 10.0 0.00 0.00 0.00 85 1012.5
20260903041402 85 134 4.0 10.0 0.00 0.00 0.00 85 1012.5
20260903041302 85 189 4.0 10.0 0.00 0.00 0.00 85 1012.5
20260903041204 85 161 3.0 10.0 0.00 0.00 0.00 85 1012.4
20260903041102 85 161 3.0 10.0 0.00 0.00 0.00 85 1012.4
20260903041002 85 178 3.0 10.0 0.00 0.00 0.00 85 1012.4
20260903040902 85 134 4.0 10.0 0.00 0.00 0.00 85 1012.5
20260903040804 85 213 4.0 10.0 0.00 0.00 0.00 85 1012.4
20260903040702 85 192 5.0 10.0 0.00 0.00 0.00 85 1012.3
20260903040602 85 118 4.0 10.0 0.00 0.00 0.00 85 1012.4
20260903040504 85 109 4.0 10.0 0.00 0.00 0.00 85 1012.4
20260903040402 85 142 5.0 10.0 0.00 0.00 0.00 85 1012.3
20260903040302 85 102 5.0 10.0 0.00 0.00 0.00 85 1012.3
20260903040203 85 140 5.0 10.0 0.00 0.00 0.00 85 1012.4
20260903040103 85 207 5.0 10.0 0.00 0.00 0.00 85 1012.4
20260903040003 85 159 5.0 10.0 0.00 0.00 0.00 85 1012.4
20260903035902 85 109 4.0 11.0 0.00 0.00 0.00 85 1012.3
20260903035802 85 175 4.0 11.0 0.00 0.00 0.00 85 1012.4
20260903035702 85 131 4.0 11.0 0.00 0.00 0.00 85 1012.3
20260903035603 85 149 4.0 11.0 0.00 0.00 0.00 85 1012.4
20260903035504 85 145 5.0 11.0 0.00 0.00 0.00 85 1012.3
20260903035403 85 110 5.0 11.0 0.00 0.00 0.00 85 1012.3
20260903035306 85 186 4.0 11.0 0.00 0.00 0.00 85 1012.3
20260903035202 85 165 4.0 11.0 0.00 0.00 0.00 85 1012.3
20260903035103 85 103 4.0 11.0 0.00 0.00 0.00 85 1012.4
20260903035004 85 173 3.0 11.0 0.00 0.00 0.00 85 1012.3
20260903034903 85 149 4.0 7.0 0.00 0.00 0.00 85 1012.3
20260903034803 85 82 3.0 7.0 0.00 0.00 0.00 85 1012.3
20260903034702 85 142 3.0 7.0 0.00 0.00 0.00 85 1012.3
20260903034603 85 140 3.0 10.0 0.00 0.00 0.00 85 1012.3
20260903034504 85 124 4.0 10.0 0.00 0.00 0.00 85 1012.4
20260903034402 85 171 4.0 10.0 0.00 0.00 0.00 85 1012.4
20260903034302 85 113 4.0 10.0 0.00 0.00 0.00 85 1012.3
20260903034202 85 120 4.0 10.0 0.00 0.00 0.00 85 1012.4
20260903034102 85 130 3.0 10.0 0.00 0.00 0.00 85 1012.4
20260903034003 85 120 3.0 10.0 0.00 0.00 0.00 85 1012.3
20260903033902 85 145 4.0 10.0 0.00 0.00 0.00 85 1012.3
20260903033803 85 107 4.0 10.0 0.00 0.00 0.00 85 1012.3
20260903033704 85 127 4.0 10.0 0.00 0.00 0.00 85 1012.3
20260903033603 85 110 4.0 10.0 0.00 0.00 0.00 85 1012.3
20260903033503 85 103 4.0 10.0 0.00 0.00 0.00 85 1012.3
20260903033402 85 120 4.0 10.0 0.00 0.00 0.00 85 1012.2
20260903033302 85 56 4.0 10.0 0.00 0.00 0.00 85 1012.2
20260903033203 85 123 3.0 10.0 0.00 0.00 0.00 85 1012.3
20260903033104 85 152 4.0 10.0 0.00 0.00 0.00 85 1012.3
20260903033004 85 118 5.0 10.0 0.00 0.00 0.00 85 1012.2
20260903032902 85 135 5.0 9.0 0.00 0.00 0.00 85 1012.2
20260903032803 85 149 6.0 9.0 0.00 0.00 0.00 85 1012.2
20260903032703 85 114 6.0 9.0 0.00 0.00 0.00 85 1012.2
20260903032602 85 147 6.0 9.0 0.00 0.00 0.00 85 1012.2
20260903032502 85 154 6.0 9.0 0.00 0.00 0.00 85 1012.2
20260903032403 85 107 5.0 9.0 0.00 0.00 0.00 85 1012.2
20260903032305 85 113 4.0 9.0 0.00 0.00 0.00 85 1012.2
20260903032203 85 94 4.0 9.0 0.00 0.00 0.00 85 1012.2
20260903032103 85 93 5.0 9.0 0.00 0.00 0.00 85 1012.2
20260903032003 85 127 5.0 9.0 0.00 0.00 0.00 85 1012.1
20260903031902 85 114 5.0 9.0 0.00 0.00 0.00 85 1012.3
20260903031802 85 113 5.0 9.0 0.00 0.00 0.00 85 1012.1
20260903031702 85 114 5.0 9.0 0.00 0.00 0.00 85 1012.2
20260903031604 85 114 4.0 9.0 0.00 0.00 0.00 85 1012.1
20260903031502 85 90 4.0 9.0 0.00 0.00 0.00 85 1012.2
20260903031404 85 107 4.0 9.0 0.00 0.00 0.00 85 1012.1
20260903031303 85 116 4.0 9.0 0.00 0.00 0.00 85 1012.1
20260903031202 85 179 5.0 10.0 0.00 0.00 0.00 85 1012.2
20260903031103 85 110 6.0 10.0 0.00 0.00 0.00 85 1012.1
20260903031004 85 111 5.0 10.0 0.00 0.00 0.00 85 1012.1
20260903030903 85 148 4.0 10.0 0.00 0.00 0.00 85 1012.1
20260903030802 85 127 5.0 10.0 0.00 0.00 0.00 85 1012.0
20260903030703 85 100 5.0 10.0 0.00 0.00 0.00 85 1012.1
20260903030602 85 96 4.0 12.0 0.00 0.00 0.00 85 1012.0
20260903030502 85 133 4.0 12.0 0.00 0.00 0.00 85 1012.0
20260903030403 85 80 5.0 13.0 0.00 0.00 0.00 85 1012.1
20260903030303 85 128 5.0 13.0 0.00 0.00 0.00 85 1012.1
20260903030202 85 51 4.0 13.0 0.00 0.00 0.00 85 1012.1
20260903030002 85 159 5.0 13.0 0.00 0.00 0.00 85 1012.0
20260903025902 85 138 5.0 13.0 0.00 0.00 0.00 85 1011.9
20260903025803 85 73 6.0 13.0 0.00 0.00 0.00 85 1011.9
20260903025704 85 134 6.0 13.0 0.00 0.00 0.00 85 1012.0
20260903025602 85 97 6.0 13.0 0.00 0.00 0.00 85 1011.9
20260903025502 85 186 6.0 13.0 0.00 0.00 0.00 85 1012.0
20260903025402 85 157 4.0 9.0 0.00 0.00 0.00 85 1011.9
20260903025301 85 130 5.0 9.0 0.00 0.00 0.00 85 1012.0
20260903025202 85 149 5.0 9.0 0.00 0.00 0.00 85 1011.8
20260903025102 85 109 4.0 9.0 0.00 0.00 0.00 85 1012.0
20260903025003 85 86 4.0 7.0 0.00 0.00 0.00 84 1011.9
20260903024902 85 151 4.0 7.0 0.00 0.00 0.00 84 1011.9
20260903024801 84 123 3.0 7.0 0.00 0.00 0.00 84 1011.9
20260903024703 84 111 4.0 7.0 0.00 0.00 0.00 84 1011.9
20260903024602 84 138 4.0 7.0 0.00 0.00 0.00 84 1012.0
20260903024501 84 110 3.0 5.0 0.00 0.00 0.00 83 1011.9
20260903024402 84 111 3.0 5.0 0.00 0.00 0.00 83 1011.9
20260903024303 84 110 3.0 6.0 0.00 0.00 0.00 83 1011.9
20260903024203 84 99 3.0 6.0 0.00 0.00 0.00 83 1011.9
20260903024103 84 117 3.0 6.0 0.00 0.00 0.00 83 1012.0
20260903024003 84 97 3.0 6.0 0.00 0.00 0.00 83 1011.9
20260903023902 83 97 3.0 6.0 0.00 0.00 0.00 83 1011.9
20260903023802 83 97 3.0 6.0 0.00 0.00 0.00 83 1011.9
20260903023702 83 79 3.0 6.0 0.00 0.00 0.00 83 1011.8
20260903023604 83 79 3.0 6.0 0.00 0.00 0.00 83 1011.8
20260903023502 83 78 4.0 6.0 0.00 0.00 0.00 83 1011.7
20260903023402 83 106 5.0 6.0 0.00 0.00 0.00 83 1011.7
20260903023303 83 120 4.0 6.0 0.00 0.00 0.00 83 1011.7
20260903023202 83 130 4.0 6.0 0.00 0.00 0.00 83 1011.6
20260903023102 83 110 3.0 5.0 0.00 0.00 0.00 83 1011.6
20260903023003 83 107 3.0 5.0 0.00 0.00 0.00 83 1011.5
20260903022903 83 89 2.0 5.0 0.00 0.00 0.00 83 1011.6
20260903022802 83 137 2.0 5.0 0.00 0.00 0.00 83 1011.5
20260903022702 83 109 2.0 5.0 0.00 0.00 0.00 83 1011.4
20260903022603 83 109 3.0 6.0 0.00 0.00 0.00 83 1011.6
20260903022503 83 109 4.0 6.0 0.00 0.00 0.00 83 1011.5
20260903022402 83 116 4.0 6.0 0.00 0.00 0.00 83 1011.5
20260903022306 83 118 3.0 6.0 0.00 0.00 0.00 83 1011.5
20260903022202 83 99 2.0 6.0 0.00 0.00 0.00 83 1011.5
20260903022104 83 97 3.0 6.0 0.00 0.00 0.00 83 1011.4
20260903022004 83 92 4.0 6.0 0.00 0.00 0.00 83 1011.4
20260903021903 83 92 4.0 6.0 0.00 0.00 0.00 83 1011.4
20260903021802 83 92 5.0 6.0 0.00 0.00 0.00 83 1011.4
20260903021702 83 89 5.0 6.0 0.00 0.00 0.00 83 1011.4
20260903021605 83 82 5.0 6.0 0.00 0.00 0.00 83 1011.3
20260903021503 83 69 5.0 6.0 0.00 0.00 0.00 83 1011.3
20260903021402 83 71 4.0 6.0 0.00 0.00 0.00 83 1011.3
20260903021302 83 59 4.0 5.0 0.00 0.00 0.00 83 1011.3
20260903021203 83 61 4.0 5.0 0.00 0.00 0.00 83 1011.3
20260903021102 82 59 3.0 5.0 0.00 0.00 0.00 83 1011.4
20260903021002 82 76 3.0 5.0 0.00 0.00 0.00 83 1011.3
20260903020903 82 76 3.0 6.0 0.00 0.00 0.00 83 1011.3
20260903020802 82 76 3.0 6.0 0.00 0.00 0.00 83 1011.3
20260903020702 82 76 3.0 6.0 0.00 0.00 0.00 83 1011.3
20260903020603 82 76 3.0 6.0 0.00 0.00 0.00 83 1011.3
20260903020503 82 76 3.0 6.0 0.00 0.00 0.00 83 1011.2
20260903020402 82 85 3.0 6.0 0.00 0.00 0.00 83 1011.2
20260903020302 82 82 3.0 6.0 0.00 0.00 0.00 83 1011.1
20260903020204 82 100 4.0 6.0 0.00 0.00 0.00 83 1011.1
20260903020003 82 107 5.0 6.0 0.00 0.00 0.00 83 1011.0
20260903015904 82 109 4.0 5.0 0.00 0.00 0.00 83 1011.0
20260903015802 82 93 3.0 4.0 0.00 0.00 0.00 83 1011.0
20260903015702 82 106 3.0 4.0 0.00 0.00 0.00 83 1011.0
20260903015601 82 135 2.0 4.0 0.00 0.00 0.00 83 1011.0
20260903015502 82 87 1.0 4.0 0.00 0.00 0.00 83 1011.0
20260903015402 82 120 2.0 4.0 0.00 0.00 0.00 83 1011.1
20260903015305 82 118 3.0 4.0 0.00 0.00 0.00 83 1011.1
20260903015203 82 102 4.0 4.0 0.00 0.00 0.00 83 1011.2
20260903015102 82 66 2.0 4.0 0.00 0.00 0.00 83 1011.2
20260903015003 82 65 2.0 4.0 0.00 0.00 0.00 83 1011.3
20260903014902 82 65 2.0 4.0 0.00 0.00 0.00 83 1011.3
20260903014803 82 65 3.0 5.0 0.00 0.00 0.00 83 1011.3
20260903014702 82 65 3.0 5.0 0.00 0.00 0.00 83 1011.4
20260903014602 82 63 2.0 5.0 0.00 0.00 0.00 82 1011.4
20260903014503 82 63 2.0 5.0 0.00 0.00 0.00 82 1011.4
20260903014403 82 63 3.0 6.0 0.00 0.00 0.00 82 1011.5
20260903014302 82 59 2.0 6.0 0.00 0.00 0.00 82 1011.5
20260903014202 82 59 2.0 7.0 0.00 0.00 0.00 82 1011.5
20260903014103 82 59 3.0 7.0 0.00 0.00 0.00 82 1011.5
20260903014004 82 52 4.0 7.0 0.00 0.00 0.00 81 1011.5
20260903013902 82 51 4.0 7.0 0.00 0.00 0.00 81 1011.5
20260903013803 82 32 3.0 10.0 0.00 0.00 0.00 81 1011.7
20260903013702 82 24 3.0 10.0 0.00 0.00 0.00 81 1011.6
20260903013603 83 37 4.0 10.0 0.00 0.00 0.00 81 1011.7
20260903013503 83 32 5.0 10.0 0.00 0.00 0.00 80 1011.7
20260903013403 83 42 5.0 10.0 0.00 0.00 0.00 80 1011.7
20260903013302 83 30 5.0 10.0 0.00 0.00 0.00 80 1011.7
20260903013202 83 30 5.0 10.0 0.00 0.00 0.00 80 1011.6
20260903013103 83 31 5.0 10.0 0.00 0.00 0.00 80 1011.6
20260903013003 83 41 6.0 10.0 0.00 0.00 0.00 80 1011.6
20260903012902 83 24 6.0 10.0 0.00 0.00 0.00 79 1011.5
20260903012804 83 49 6.0 10.0 0.00 0.00 0.00 79 1011.4
20260903012702 83 28 5.0 10.0 0.00 0.00 0.00 79 1011.4
20260903012602 83 30 5.0 10.0 0.00 0.00 0.00 79 1011.3
20260903012503 83 13 5.0 10.0 0.00 0.00 0.00 79 1011.2
20260903012403 83 25 5.0 10.0 0.00 0.00 0.00 79 1011.2
20260903012302 83 54 5.0 11.0 0.00 0.00 0.00 79 1011.2
20260903012202 83 71 5.0 11.0 0.00 0.00 0.00 79 1011.2
20260903012104 83 52 6.0 11.0 0.00 0.00 0.00 79 1011.2
20260903012002 83 68 7.0 12.0 0.00 0.00 0.00 78 1011.3
20260903011903 83 58 6.0 12.0 0.00 0.00 0.00 78 1011.3
20260903011803 83 58 5.0 12.0 0.00 0.00 0.00 78 1011.4
20260903011703 84 47 6.0 15.0 0.00 0.00 0.00 78 1011.4
20260903011602 84 85 7.0 15.0 0.00 0.00 0.00 78 1011.3
20260903011503 84 49 8.0 15.0 0.00 0.00 0.00 78 1011.3
20260903011404 84 61 7.0 16.0 0.00 0.00 0.00 78 1011.3
20260903011303 84 49 6.0 16.0 0.00 0.00 0.00 77 1011.4
20260903011202 84 24 8.0 16.0 0.00 0.00 0.00 77 1011.3
20260903011102 84 49 8.0 16.0 0.00 0.00 0.00 77 1011.3
20260903011003 85 54 6.0 16.0 0.00 0.00 0.00 76 1011.4
20260903010902 85 56 8.0 16.0 0.00 0.00 0.00 76 1011.4
20260903010803 85 39 9.0 16.0 0.00 0.00 0.00 76 1011.4
20260903010704 85 49 10.0 16.0 0.00 0.00 0.00 76 1011.5
20260903010603 85 39 12.0 16.0 0.00 0.00 0.00 76 1011.4
20260903010502 85 27 11.0 16.0 0.00 0.00 0.00 76 1011.4
20260903010403 85 48 10.0 16.0 0.00 0.00 0.00 76 1011.3
20260903010302 86 7 9.0 13.0 0.00 0.00 0.00 76 1011.3
20260903010201 86 24 9.0 13.0 0.00 0.00 0.00 76 1011.2
20260903010004 86 41 9.0 13.0 0.00 0.00 0.00 76 1010.9
20260903005904 86 85 9.0 13.0 0.00 0.00 0.00 76 1010.9
20260903005802 86 71 8.0 13.0 0.00 0.00 0.00 76 1010.9
20260903005703 86 89 7.0 12.0 0.00 0.00 0.00 75 1010.9
20260903005603 86 100 7.0 12.0 0.00 0.00 0.00 75 1010.9
20260903005503 86 62 5.0 14.0 0.00 0.00 0.00 75 1010.8
20260903005403 86 68 5.0 14.0 0.00 0.00 0.00 74 1010.7
20260903005306 86 62 5.0 14.0 0.00 0.00 0.00 74 1010.7
20260903005203 86 68 6.0 14.0 0.00 0.00 0.00 73 1010.6
20260903005102 86 56 8.0 14.0 0.00 0.00 0.00 73 1010.6
20260903005003 86 83 8.0 15.0 0.00 0.00 0.00 73 1010.4
20260903004902 87 34 8.0 15.0 0.00 0.00 0.00 73 1010.4
20260903004803 87 24 8.0 15.0 0.00 0.00 0.00 72 1010.4
20260903004703 87 35 9.0 15.0 0.00 0.00 0.00 71 1010.4
20260903004603 88 37 8.0 15.0 0.00 0.00 0.00 71 1010.4
20260903004502 88 51 5.0 15.0 0.00 0.00 0.00 70 1010.4
20260903004402 89 75 5.0 15.0 0.00 0.00 0.00 69 1010.5
20260903004303 89 52 9.0 15.0 0.00 0.00 0.00 68 1010.4
20260903004202 89 37 10.0 15.0 0.00 0.00 0.00 68 1010.5
20260903004103 89 38 9.0 15.0 0.00 0.00 0.00 66 1010.6
20260903004003 89 104 8.0 13.0 0.00 0.00 0.00 66 1010.5
20260903003903 89 85 7.0 13.0 0.00 0.00 0.00 66 1010.5
20260903003804 89 86 6.0 13.0 0.00 0.00 0.00 66 1010.5
20260903003705 89 90 4.0 11.0 0.00 0.00 0.00 66 1010.5
20260903003602 89 86 4.0 11.0 0.00 0.00 0.00 66 1010.6
20260903003502 89 97 4.0 11.0 0.00 0.00 0.00 66 1010.6
20260903003403 90 120 4.0 11.0 0.00 0.00 0.00 65 1010.6
20260903003304 90 196 4.0 11.0 0.00 0.00 0.00 65 1010.6
20260903003203 90 130 5.0 11.0 0.00 0.00 0.00 65 1010.6
20260903003102 90 42 6.0 11.0 0.00 0.00 0.00 65 1010.6
20260903003005 90 141 6.0 11.0 0.00 0.00 0.00 65 1010.6
20260903002902 90 149 5.0 19.0 0.00 0.00 0.00 65 1010.6
20260903002802 90 175 5.0 19.0 0.00 0.00 0.00 65 1010.6
20260903002702 90 154 5.0 19.0 0.00 0.00 0.00 65 1010.5
20260903002604 90 223 4.0 19.0 0.00 0.00 0.00 65 1010.4
20260903002502 90 102 5.0 19.0 0.00 0.00 0.00 65 1010.4
20260903002402 90 206 5.0 19.0 0.00 0.00 0.00 65 1010.4
20260903002306 90 161 5.0 19.0 0.00 0.00 0.00 65 1010.3
20260903002202 90 237 5.0 19.0 0.00 0.00 0.00 65 1010.3
20260903002102 90 89 6.0 19.0 0.00 0.00 0.00 65 1010.2
20260903002004 90 188 8.0 19.0 0.00 0.00 0.00 65 1010.2
20260903001902 90 111 6.0 19.0 0.00 0.00 0.00 65 1010.1
20260903001803 90 133 6.0 19.0 0.00 0.00 0.00 65 1010.1
20260903001704 90 182 6.0 19.0 0.00 0.00 0.00 65 1010.1
20260903001602 90 162 7.0 19.0 0.00 0.00 0.00 66 1010.0
20260903001502 90 142 7.0 19.0 0.00 0.00 0.00 66 1010.0
20260903001401 90 185 6.0 19.0 0.00 0.00 0.00 66 1010.0
20260903001303 90 76 6.0 20.0 0.00 0.00 0.00 65 1009.9
20260903001203 90 144 9.0 20.0 0.00 0.00 0.00 65 1009.9
20260903001102 90 237 10.0 20.0 0.00 0.00 0.00 65 1009.8
20260903001002 90 189 8.0 20.0 0.00 0.00 0.00 65 1009.8
20260903000902 90 161 8.0 20.0 0.00 0.00 0.00 65 1009.7
20260903000803 90 178 8.0 20.0 0.00 0.00 0.00 65 1009.7
20260903000702 91 173 7.0 20.0 0.00 0.00 0.00 65 1009.6
20260903000603 91 172 7.0 20.0 0.00 0.00 0.00 66 1009.7
20260903000504 91 185 9.0 20.0 0.00 0.00 0.00 65 1009.6
20260903000402 91 152 9.0 20.0 0.00 0.00 0.00 65 1009.5
20260903000303 91 233 9.0 17.0 0.00 0.00 0.00 65 1009.5
20260903000204 91 195 9.0 17.0 0.00 0.00 0.00 65 1009.3
20260903000003 91 152 7.0 16.0 0.00 0.00 0.00 65 1009.3
20260902235903 91 176 5.0 16.0 0.00 0.00 0.00 65 1009.1
20260902235803 91 269 6.0 16.0 0.00 0.00 0.00 65 1009.2
20260902235704 91 99 9.0 16.0 0.00 0.00 0.00 65 1009.2
20260902235603 91 175 10.0 16.0 0.00 0.00 0.00 65 1009.1
20260902235503 91 142 8.0 16.0 0.00 0.00 0.00 65 1009.2
20260902235402 91 171 7.0 16.0 0.00 0.00 0.00 65 1009.2
20260902235305 91 185 8.0 16.0 0.00 0.00 0.00 64 1009.2
20260902235203 91 188 8.0 16.0 0.00 0.00 0.00 64 1009.1
20260902235102 91 103 9.0 16.0 0.00 0.00 0.00 64 1009.1
20260902235003 91 188 7.0 16.0 0.00 0.00 0.00 64 1009.1
20260902234904 92 128 5.0 16.0 0.00 0.00 0.00 64 1009.1
20260902234802 92 152 6.0 16.0 0.00 0.00 0.00 64 1009.1
20260902234701 92 92 6.0 16.0 0.00 0.00 0.00 64 1009.0
20260902234602 92 159 7.0 16.0 0.00 0.00 0.00 64 1009.0
20260902234505 92 159 7.0 16.0 0.00 0.00 0.00 64 1008.9
20260902234402 92 147 6.0 16.0 0.00 0.00 0.00 64 1008.9
20260902234302 92 134 7.0 16.0 0.00 0.00 0.00 63 1008.9
20260902234203 92 188 8.0 16.0 0.00 0.00 0.00 63 1008.9
20260902234103 92 261 8.0 16.0 0.00 0.00 0.00 63 1008.9
20260902234004 92 130 8.0 16.0 0.00 0.00 0.00 63 1009.0
20260902233904 92 164 8.0 16.0 0.00 0.00 0.00 63 1009.0
20260902233803 92 124 7.0 16.0 0.00 0.00 0.00 63 1009.0
20260902233703 92 171 5.0 16.0 0.00 0.00 0.00 63 1009.1
20260902233603 92 168 4.0 17.0 0.00 0.00 0.00 63 1009.0
20260902233505 92 168 6.0 17.0 0.00 0.00 0.00 63 1009.1
20260902233403 92 162 7.0 17.0 0.00 0.00 0.00 63 1009.1
20260902233302 92 116 6.0 17.0 0.00 0.00 0.00 63 1009.1
20260902233203 92 157 7.0 17.0 0.00 0.00 0.00 62 1009.1
20260902233103 92 27 8.0 17.0 0.00 0.00 0.00 62 1009.1
20260902233003 92 134 8.0 17.0 0.00 0.00 0.00 62 1009.2
20260902232903 92 162 9.0 17.0 0.00 0.00 0.00 62 1009.2
20260902232803 92 196 9.0 17.0 0.00 0.00 0.00 62 1009.3
20260902232702 92 164 6.0 17.0 0.00 0.00 0.00 62 1009.2
20260902232602 92 183 4.0 16.0 0.00 0.00 0.00 62 1009.2
20260902232504 92 71 5.0 16.0 0.00 0.00 0.00 62 1009.3
20260902232402 92 154 7.0 16.0 0.00 0.00 0.00 62 1009.3
20260902232302 92 124 7.0 16.0 0.00 0.00 0.00 62 1009.4
20260902232203 93 137 6.0 16.0 0.00 0.00 0.00 62 1009.4
20260902232103 93 255 7.0 16.0 0.00 0.00 0.00 62 1009.4
20260902232004 93 114 7.0 16.0 0.00 0.00 0.00 62 1009.4
20260902231902 93 157 6.0 14.0 0.00 0.00 0.00 62 1009.5
20260902231802 93 207 6.0 13.0 0.00 0.00 0.00 63 1009.4
20260902231703 93 186 6.0 13.0 0.00 0.00 0.00 63 1009.4
20260902231602 93 130 5.0 11.0 0.00 0.00 0.00 63 1009.4
20260902231503 93 109 5.0 11.0 0.00 0.00 0.00 63 1009.4
20260902231402 93 265 4.0 11.0 0.00 0.00 0.00 63 1009.3
20260902231304 93 107 5.0 11.0 0.00 0.00 0.00 63 1009.3
20260902231203 93 179 6.0 11.0 0.00 0.00 0.00 63 1009.3
20260902231104 93 161 6.0 13.0 0.00 0.00 0.00 63 1009.3
20260902231002 93 171 4.0 13.0 0.00 0.00 0.00 63 1009.2
20260902230902 93 180 3.0 13.0 0.00 0.00 0.00 63 1009.2
20260902230803 93 71 5.0 13.0 0.00 0.00 0.00 63 1009.2
20260902230702 93 216 6.0 13.0 0.00 0.00 0.00 63 1009.3
20260902230603 93 137 5.0 13.0 0.00 0.00 0.00 63 1009.2
20260902230502 93 142 5.0 13.0 0.00 0.00 0.00 63 1009.3
20260902230359 93 189 6.0 13.0 0.00 0.00 0.00 63 1009.2
20260902230258 93 162 7.0 13.0 0.00 0.00 0.00 63 1009.4
20260902230155 93 134 6.0 13.0 0.00 0.00 0.00 63 1009.4
20260902230056 93 157 5.0 13.0 0.00 0.00 0.00 63 1009.3
20260902225954 93 179 6.0 13.0 0.00 0.00 0.00 63 1009.3
20260902225856 93 142 6.0 16.0 0.00 0.00 0.00 63 1009.3
20260902225754 93 157 6.0 16.0 0.00 0.00 0.00 63 1009.1
20260902225655 93 131 6.0 16.0 0.00 0.00 0.00 63 1009.1
20260902225556 93 172 6.0 16.0 0.00 0.00 0.00 63 1009.1
20260902225455 93 188 6.0 16.0 0.00 0.00 0.00 63 1009.0
20260902225354 93 144 6.0 16.0 0.00 0.00 0.00 63 1009.1
20260902225254 93 176 6.0 16.0 0.00 0.00 0.00 63 1009.0
20260902225154 93 152 7.0 16.0 0.00 0.00 0.00 63 1009.0
20260902225054 93 235 6.0 16.0 0.00 0.00 0.00 63 1009.0
20260902224955 93 234 6.0 16.0 0.00 0.00 0.00 62 1009.0
20260902224856 93 159 6.0 16.0 0.00 0.00 0.00 62 1009.0
20260902224755 94 175 7.0 17.0 0.00 0.00 0.00 62 1009.0
20260902224655 94 130 7.0 17.0 0.00 0.00 0.00 62 1009.0
20260902224554 94 147 6.0 17.0 0.00 0.00 0.00 62 1009.0
20260902224455 94 133 6.0 17.0 0.00 0.00 0.00 62 1009.1
20260902224354 94 155 7.0 17.0 0.00 0.00 0.00 62 1009.2
20260902224254 94 151 7.0 17.0 0.00 0.00 0.00 61 1009.1
20260902224155 94 149 8.0 17.0 0.00 0.00 0.00 61 1009.1
20260902224054 94 169 9.0 17.0 0.00 0.00 0.00 61 1009.2
20260902223955 94 175 8.0 17.0 0.00 0.00 0.00 61 1009.2
20260902223856 94 128 8.0 17.0 0.00 0.00 0.00 61 1009.3
20260902223754 94 133 6.0 13.0 0.00 0.00 0.00 61 1009.3
20260902223655 94 159 4.0 11.0 0.00 0.00 0.00 62 1009.3
20260902223554 94 137 4.0 11.0 0.00 0.00 0.00 61 1009.3
20260902223455 94 127 4.0 11.0 0.00 0.00 0.00 62 1009.3
20260902223354 94 176 4.0 11.0 0.00 0.00 0.00 62 1009.3
20260902223254 94 97 5.0 13.0 0.00 0.00 0.00 62 1009.2
20260902223155 94 166 5.0 14.0 0.00 0.00 0.00 61 1009.3
20260902223055 94 135 4.0 14.0 0.00 0.00 0.00 62 1009.3
20260902222953 94 149 5.0 14.0 0.00 0.00 0.00 62 1009.3
20260902222854 94 128 6.0 14.0 0.00 0.00 0.00 61 1009.3
20260902222756 94 147 5.0 14.0 0.00 0.00 0.00 61 1009.3
20260902222653 94 149 5.0 14.0 0.00 0.00 0.00 61 1009.2
20260902222554 94 207 6.0 14.0 0.00 0.00 0.00 61 1009.2
20260902222455 94 137 5.0 14.0 0.00 0.00 0.00 61 1009.3
20260902222355 94 82 6.0 14.0 0.00 0.00 0.00 61 1009.3
20260902222253 94 133 6.0 14.0 0.00 0.00 0.00 61 1009.2
20260902222155 94 255 5.0 12.0 0.00 0.00 0.00 62 1009.4
20260902222055 94 128 4.0 13.0 0.00 0.00 0.00 62 1009.3
20260902221954 94 120 4.0 13.0 0.00 0.00 0.00 61 1009.3
20260902221854 94 120 5.0 13.0 0.00 0.00 0.00 61 1009.4
20260902221754 94 141 6.0 13.0 0.00 0.00 0.00 61 1009.4
20260902221654 94 235 5.0 13.0 0.00 0.00 0.00 61 1009.4
20260902221554 94 123 3.0 14.0 0.00 0.00 0.00 61 1009.4
20260902221454 94 157 6.0 14.0 0.00 0.00 0.00 61 1009.4
20260902221355 94 151 6.0 14.0 0.00 0.00 0.00 61 1009.3
20260902221254 94 99 6.0 14.0 0.00 0.00 0.00 61 1009.3
20260902221154 94 154 7.0 15.0 0.00 0.00 0.00 60 1009.4
20260902221056 94 148 6.0 15.0 0.00 0.01 0.00 61 1009.4
20260902220953 94 135 5.0 15.0 0.00 0.01 0.00 61 1009.4
20260902220854 94 121 6.0 15.0 0.00 0.01 0.00 61 1009.3
20260902220753 94 83 9.0 15.0 0.00 0.01 0.00 60 1009.4
20260902220653 94 140 7.0 15.0 0.00 0.01 0.00 60 1009.4
20260902220554 94 121 5.0 15.0 0.00 0.01 0.00 61 1009.3
20260902220453 94 142 6.0 15.0 0.00 0.01 0.00 61 1009.4
20260902220354 94 185 8.0 15.0 0.00 0.01 0.00 60 1009.3
20260902220254 94 176 7.0 15.0 0.00 0.01 0.00 60 1009.4
20260902220153 94 212 6.0 15.0 0.00 0.01 0.00 60 1009.4
20260902220053 94 92 5.0 15.0 0.00 0.01 0.00 60 1009.4
20260902215954 94 172 7.0 15.0 0.00 0.01 0.00 60 1009.4
20260902215854 94 147 8.0 15.0 0.00 0.01 0.00 60 1009.4
20260902215753 94 135 6.0 14.0 0.00 0.01 0.00 60 1009.4
20260902215654 94 169 6.0 14.0 0.00 0.01 0.00 61 1009.5
20260902215554 94 140 6.0 14.0 0.00 0.01 0.00 61 1009.4
20260902215453 94 92 6.0 14.0 0.00 0.01 0.00 61 1009.4
20260902215354 94 120 6.0 14.0 0.00 0.01 0.00 61 1009.5
20260902215254 94 147 7.0 14.0 0.00 0.01 0.00 61 1009.4
20260902215153 94 168 8.0 14.0 0.00 0.01 0.00 60 1009.4
20260902215053 95 172 7.0 14.0 0.00 0.01 0.00 61 1009.6
20260902214955 95 144 6.0 14.0 0.00 0.01 0.00 61 1009.5
20260902214853 94 259 5.0 14.0 0.00 0.01 0.00 61 1009.6
20260902214752 95 141 7.0 14.0 0.00 0.01 0.00 60 1009.6
20260902214654 95 125 7.0 14.0 0.00 0.01 0.00 60 1009.4
20260902214553 95 200 5.0 13.0 0.00 0.01 0.00 60 1009.4
20260902214453 95 173 5.0 13.0 0.00 0.01 0.00 60 1009.5
20260902214353 95 164 7.0 13.0 0.00 0.01 0.00 60 1009.4
20260902214255 95 124 8.0 13.0 0.00 0.01 0.00 60 1009.4
20260902214153 95 171 7.0 13.0 0.00 0.01 0.00 60 1009.5
20260902214053 95 169 5.0 14.0 0.00 0.01 0.00 61 1009.4
20260902213954 95 190 4.0 15.0 0.00 0.01 0.00 61 1009.4
20260902213854 95 175 6.0 15.0 0.00 0.01 0.00 61 1009.4
20260902213754 95 144 6.0 15.0 0.00 0.01 0.00 61 1009.5
20260902213652 95 145 5.0 15.0 0.00 0.01 0.00 61 1009.4
20260902213553 95 226 5.0 15.0 0.00 0.01 0.00 61 1009.5
20260902213454 95 124 4.0 15.0 0.00 0.01 0.00 61 1009.5
20260902213353 95 159 4.0 15.0 0.00 0.01 0.00 61 1009.5
20260902213253 95 193 7.0 15.0 0.00 0.01 0.00 60 1009.5
20260902213154 95 171 9.0 15.0 0.00 0.01 0.00 60 1009.5
20260902213052 95 142 6.0 15.0 0.00 0.01 0.00 60 1009.5
20260902212953 95 92 6.0 12.0 0.00 0.01 0.00 60 1009.5
20260902212853 95 168 5.0 12.0 0.00 0.01 0.00 60 1009.5
20260902212752 96 85 5.0 12.0 0.00 0.01 0.00 60 1009.5
20260902212652 95 166 6.0 12.0 0.00 0.01 0.00 60 1009.5
20260902212553 96 151 5.0 13.0 0.00 0.01 0.00 60 1009.5
20260902212453 96 193 4.0 13.0 0.00 0.01 0.00 60 1009.6
20260902212353 96 83 4.0 13.0 0.00 0.01 0.00 60 1009.6
20260902212253 96 80 6.0 13.0 0.00 0.01 0.00 60 1009.6
20260902212153 96 138 6.0 13.0 0.00 0.01 0.00 61 1009.6
20260902212052 96 110 6.0 13.0 0.00 0.01 0.00 60 1009.6
20260902211952 96 147 6.0 13.0 0.00 0.01 0.00 60 1009.5
20260902211853 96 149 6.0 13.0 0.00 0.01 0.00 60 1009.6
20260902211753 96 192 7.0 13.0 0.00 0.01 0.00 60 1009.6
20260902211652 96 137 6.0 13.0 0.00 0.01 0.00 60 1009.6
20260902211552 96 216 5.0 11.0 0.00 0.01 0.00 60 1009.6
20260902211454 96 197 5.0 11.0 0.00 0.01 0.00 60 1009.6
20260902211352 96 123 6.0 11.0 0.00 0.01 0.00 59 1009.6
20260902211252 96 120 6.0 11.0 0.00 0.01 0.00 59 1009.8
20260902211154 96 155 5.0 11.0 0.00 0.01 0.00 59 1009.7
20260902211053 96 209 5.0 12.0 0.00 0.01 0.00 59 1009.8
20260902210953 96 212 3.0 12.0 0.00 0.01 0.00 60 1009.8
20260902210854 96 188 3.0 12.0 0.00 0.01 0.00 60 1009.8
20260902210753 96 152 4.0 12.0 0.00 0.01 0.00 60 1009.8
20260902210654 96 230 4.0 12.0 0.00 0.01 0.00 60 1009.8
20260902210551 96 106 4.0 12.0 0.00 0.01 0.00 60 1009.8
20260902210453 96 113 6.0 12.0 0.00 0.01 0.00 60 1009.8
20260902210353 96 195 6.0 12.0 0.00 0.01 0.00 60 1009.8
20260902210253 96 94 6.0 12.0 0.00 0.01 0.00 60 1009.8
20260902210154 96 154 6.0 12.0 0.00 0.01 0.00 60 1009.8
20260902210053 95 61 6.0 13.0 0.00 0.01 0.00 61 1009.7
20260902205951 96 130 6.0 13.0 0.00 0.01 0.00 60 1009.7
20260902205851 96 149 5.0 13.0 0.00 0.01 0.00 60 1009.8
20260902205752 96 157 7.0 13.0 0.00 0.01 0.00 60 1009.8
20260902205653 96 103 7.0 13.0 0.00 0.01 0.00 61 1009.7
20260902205552 95 69 6.0 13.0 0.00 0.01 0.00 60 1009.7
20260902205453 95 145 6.0 13.0 0.00 0.01 0.00 60 1009.7
20260902205352 95 114 7.0 13.0 0.00 0.01 0.00 60 1009.7
20260902205251 95 176 7.0 13.0 0.00 0.01 0.00 60 1009.7
20260902205151 95 145 7.0 13.0 0.00 0.01 0.00 60 1009.6
20260902205053 95 121 6.0 13.0 0.00 0.01 0.00 60 1009.6
20260902204952 95 197 6.0 12.0 0.00 0.03 0.00 60 1009.6
20260902204852 95 149 6.0 12.0 0.00 0.03 0.00 60 1009.6
20260902204751 95 161 5.0 12.0 0.00 0.03 0.00 61 1009.7
20260902204652 95 86 5.0 12.0 0.00 0.03 0.00 60 1009.6
20260902204551 95 121 6.0 12.0 0.00 0.03 0.00 61 1009.7
20260902204451 95 48 6.0 12.0 0.00 0.03 0.00 60 1009.7
20260902204352 95 164 6.0 12.0 0.00 0.03 0.00 60 1009.8
20260902204251 95 213 5.0 12.0 0.00 0.03 0.00 60 1009.8
20260902204152 95 179 6.0 12.0 0.00 0.03 0.00 59 1009.7
20260902204053 95 97 6.0 12.0 0.00 0.03 0.00 59 1009.7
20260902203953 96 172 6.0 12.0 0.00 0.03 0.00 59 1009.9
20260902203852 96 172 7.0 12.0 0.00 0.03 0.00 58 1009.8
20260902203752 96 206 6.0 12.0 0.00 0.03 0.00 57 1009.8
20260902203652 96 169 5.0 12.0 0.00 0.04 0.00 57 1009.9
20260902203551 96 169 5.0 12.0 0.00 0.04 0.00 57 1009.9
20260902203451 96 192 6.0 12.0 0.00 0.04 0.00 57 1009.9
20260902203353 96 192 6.0 12.0 0.00 0.04 0.00 57 1010.0
20260902203252 96 219 6.0 12.0 0.00 0.04 0.00 56 1010.0
20260902203151 96 193 5.0 12.0 0.00 0.05 0.00 56 1010.0
20260902203051 96 121 6.0 12.0 0.00 0.05 0.00 57 1010.1
20260902202953 96 189 6.0 12.0 0.00 0.05 0.00 57 1010.1
20260902202851 96 196 6.0 13.0 0.00 0.05 0.00 57 1010.1
20260902202752 96 175 6.0 14.0 0.00 0.05 0.00 57 1010.1
20260902202652 96 203 5.0 14.0 0.00 0.05 0.00 57 1010.1
20260902202552 96 110 5.0 14.0 0.00 0.06 0.00 57 1010.1
20260902202451 96 224 5.0 14.0 0.00 0.06 0.00 57 1010.1
20260902202351 96 234 6.0 14.0 0.00 0.06 0.00 56 1010.2
20260902202253 96 231 5.0 14.0 0.00 0.06 0.00 56 1010.1
20260902202151 96 209 6.0 14.0 0.00 0.06 0.00 56 1010.1
20260902202051 96 180 9.0 14.0 0.00 0.06 0.00 56 1010.2
20260902201952 97 212 9.0 15.0 0.00 0.06 0.00 56 1010.2
20260902201851 97 186 7.0 15.0 0.00 0.06 0.00 57 1010.2
20260902201752 97 171 4.0 15.0 0.00 0.06 0.00 57 1010.1
20260902201652 97 237 6.0 15.0 0.00 0.06 0.00 57 1010.1
20260902201553 97 224 7.0 15.0 0.00 0.06 0.00 56 1010.0
20260902201451 97 214 6.0 15.0 0.00 0.06 0.00 56 1010.2
20260902201352 97 192 5.0 15.0 0.00 0.06 0.00 55 1010.1
20260902201251 97 259 6.0 15.0 0.00 0.06 0.00 56 1010.1
20260902201150 97 185 8.0 16.0 0.00 0.06 0.00 55 1010.1
20260902201051 97 162 8.0 17.0 0.00 0.06 0.00 56 1010.1
20260902200951 97 125 6.0 17.0 0.00 0.06 0.00 56 1010.1
20260902200852 97 204 6.0 17.0 0.00 0.06 0.00 55 1010.1
20260902200750 98 182 6.0 17.0 0.00 0.06 0.00 55 1010.1
20260902200650 98 190 6.0 17.0 0.00 0.06 0.00 55 1010.1
20260902200553 98 71 6.0 17.0 0.00 0.06 0.00 55 1010.2
20260902200451 97 104 6.0 17.0 0.00 0.06 0.00 56 1010.1
20260902200350 97 189 9.0 17.0 0.00 0.06 0.00 57 1010.1
20260902200251 97 207 12.0 17.0 0.00 0.06 0.00 56 1010.2
20260902200151 97 255 11.0 17.0 0.00 0.06 0.00 55 1010.2
20260902200050 98 261 9.0 14.0 0.00 0.06 0.00 56 1010.2
20260902195950 98 199 8.0 14.0 0.00 0.06 0.00 55 1010.3
20260902195851 98 245 7.0 13.0 0.00 0.06 0.00 56 1010.2
20260902195750 98 213 6.0 13.0 0.00 0.06 0.00 57 1010.3
20260902195651 97 165 5.0 13.0 0.00 0.06 0.00 57 1010.4
20260902195550 97 196 5.0 13.0 0.00 0.06 0.00 58 1010.3
20260902195451 96 219 6.0 13.0 0.00 0.06 0.00 58 1010.4
20260902195351 96 178 6.0 13.0 0.00 0.06 0.00 58 1010.4
20260902195251 96 161 6.0 13.0 0.00 0.06 0.00 59 1010.5
20260902195151 95 134 7.0 13.0 0.00 0.06 0.00 58 1010.5
20260902195051 95 172 7.0 13.0 0.00 0.06 0.00 59 1010.5
20260902194951 95 157 6.0 14.0 0.00 0.06 0.00 58 1010.5
20260902194852 95 164 5.0 14.0 0.00 0.06 0.00 58 1010.5
20260902194751 95 210 7.0 14.0 0.00 0.06 0.00 57 1010.6
20260902194650 95 219 8.0 14.0 0.00 0.06 0.00 57 1010.6
20260902194550 95 237 7.0 14.0 0.00 0.06 0.00 58 1010.6
20260902194451 96 214 7.0 14.0 0.00 0.06 0.00 58 1010.6
20260902194350 96 219 7.0 14.0 0.00 0.06 0.00 57 1010.6
20260902194251 96 233 8.0 14.0 0.00 0.06 0.00 58 1010.7
20260902194152 96 234 8.0 14.0 0.00 0.06 0.00 58 1010.8
20260902194050 96 230 8.0 14.0 0.00 0.06 0.00 58 1010.7
20260902193950 96 244 8.0 13.0 0.00 0.06 0.00 57 1010.7
20260902193850 96 233 7.0 13.0 0.00 0.06 0.00 57 1010.7
20260902193752 96 216 6.0 13.0 0.00 0.06 0.00 56 1010.7
20260902193650 97 203 7.0 13.0 0.00 0.06 0.00 56 1010.7
20260902193550 97 248 9.0 13.0 0.00 0.06 0.00 55 1010.8
20260902193450 98 255 9.0 13.0 0.00 0.06 0.00 55 1010.8
20260902193350 98 255 8.0 13.0 0.00 0.06 0.00 55 1010.8
20260902193251 98 226 6.0 13.0 0.00 0.06 0.00 56 1010.8
20260902193152 97 189 5.0 13.0 0.00 0.06 0.00 57 1010.8
20260902193052 97 209 5.0 13.0 0.00 0.06 0.00 57 1010.9
20260902192951 96 261 8.0 13.0 0.00 0.06 0.00 59 1010.9
20260902192850 96 261 8.0 13.0 0.00 0.06 0.00 59 1011.0
20260902192751 96 261 8.0 13.0 0.00 0.06 0.00 59 1010.9
20260902192650 96 261 8.0 13.0 0.00 0.06 0.00 59 1011.0
20260902192550 96 247 8.0 12.0 0.00 0.06 0.00 59 1011.0
20260902192450 95 257 7.0 12.0 0.00 0.06 0.00 59 1011.1
20260902192351 95 227 8.0 12.0 0.00 0.06 0.00 59 1011.0
20260902192250 95 234 7.0 12.0 0.00 0.06 0.00 59 1011.0
20260902192149 95 196 6.0 13.0 0.00 0.06 0.00 60 1011.0
20260902192050 95 250 5.0 14.0 0.00 0.06 0.00 60 1011.0
20260902191949 95 237 5.0 14.0 0.00 0.06 0.00 60 1011.0
20260902191850 95 210 6.0 19.0 0.00 0.06 0.00 61 1011.0
20260902191749 94 135 6.0 19.0 0.00 0.06 0.00 61 1011.0
20260902191650 94 248 6.0 19.0 0.00 0.06 0.00 61 1011.2
20260902191550 94 254 8.0 19.0 0.00 0.06 0.00 61 1011.2
20260902191449 94 234 8.0 19.0 0.00 0.06 0.00 62 1011.1
20260902191351 94 237 8.0 19.0 0.00 0.06 0.00 62 1011.2
20260902191250 94 248 10.0 19.0 0.00 0.06 0.00 62 1011.1
20260902191149 94 203 11.0 19.0 0.00 0.06 0.00 62 1011.2
20260902191050 94 233 11.0 19.0 0.00 0.06 0.00 62 1011.1
20260902190949 94 254 9.0 19.0 0.00 0.06 0.00 62 1011.1
20260902190849 94 250 6.0 13.0 0.00 0.06 0.00 62 1011.1
20260902190749 94 262 7.0 13.0 0.00 0.06 0.00 62 1011.2
20260902190651 94 286 7.0 13.0 0.00 0.06 0.00 62 1011.1
20260902190549 94 262 7.0 13.0 0.00 0.06 0.00 62 1011.1
20260902190449 94 243 6.0 12.0 0.00 0.06 0.00 62 1011.2
20260902190351 94 240 5.0 12.0 0.00 0.06 0.00 63 1011.2
20260902190249 93 217 6.0 12.0 0.00 0.06 0.00 63 1011.1
20260902190150 93 237 7.0 12.0 0.00 0.06 0.00 63 1011.2
20260902190050 93 243 7.0 12.0 0.00 0.06 0.00 63 1011.1
20260902185951 93 228 8.0 14.0 0.00 0.06 0.00 63 1011.1
20260902185849 93 213 7.0 14.0 0.00 0.06 0.00 63 1011.1
20260902185749 94 238 7.0 14.0 0.00 0.06 0.00 63 1011.1
20260902185651 94 241 7.0 14.0 0.00 0.06 0.00 63 1011.2
20260902185548 94 238 6.0 14.0 0.00 0.06 0.00 64 1011.2
20260902185449 93 223 6.0 14.0 0.00 0.06 0.00 64 1011.2
20260902185349 93 227 6.0 14.0 0.00 0.06 0.00 64 1011.1
20260902185251 93 247 7.0 14.0 0.00 0.06 0.00 64 1011.2
20260902185149 93 244 9.0 14.0 0.00 0.06 0.00 64 1011.2
20260902185049 93 238 10.0 14.0 0.00 0.06 0.00 64 1011.3
20260902184950 93 234 8.0 13.0 0.00 0.06 0.00 63 1011.2
20260902184849 94 261 7.0 13.0 0.00 0.06 0.00 64 1011.3
20260902184749 93 248 7.0 13.0 0.00 0.06 0.00 64 1011.3
20260902184649 93 238 8.0 13.0 0.00 0.06 0.00 64 1011.4
20260902184550 93 227 9.0 12.0 0.00 0.06 0.00 64 1011.4
20260902184448 93 220 8.0 12.0 0.00 0.06 0.00 64 1011.3
20260902184348 93 248 7.0 12.0 0.00 0.06 0.00 64 1011.4
20260902184250 93 228 7.0 12.0 0.00 0.06 0.00 64 1011.3
20260902184148 93 244 7.0 12.0 0.00 0.06 0.00 64 1011.4
20260902184048 93 213 7.0 12.0 0.00 0.06 0.00 64 1011.4
20260902183948 93 237 7.0 12.0 0.00 0.06 0.00 65 1011.4
20260902183849 93 250 6.0 13.0 0.00 0.06 0.00 65 1011.5
20260902183748 93 217 6.0 13.0 0.00 0.06 0.00 66 1011.5
20260902183649 93 217 5.0 13.0 0.00 0.06 0.00 66 1011.6
20260902183550 92 210 6.0 13.0 0.00 0.06 0.00 66 1011.6
20260902183448 92 209 6.0 13.0 0.00 0.06 0.00 66 1011.6
20260902183348 92 243 7.0 13.0 0.00 0.06 0.00 66 1011.5
20260902183248 92 251 6.0 13.0 0.00 0.06 0.00 66 1011.6
20260902183149 92 228 6.0 13.0 0.00 0.06 0.00 67 1011.6
20260902183048 92 237 8.0 13.0 0.00 0.06 0.00 66 1011.6
20260902182949 92 230 8.0 14.0 0.00 0.06 0.00 66 1011.6
20260902182849 92 214 6.0 14.0 0.00 0.06 0.00 67 1011.7
20260902182749 92 245 7.0 14.0 0.00 0.06 0.00 67 1011.6
20260902182648 92 238 7.0 14.0 0.00 0.06 0.00 67 1011.7
20260902182548 92 243 6.0 14.0 0.00 0.06 0.00 67 1011.8
20260902182451 91 233 6.0 14.0 0.00 0.06 0.00 67 1011.7
20260902182348 91 228 7.0 14.0 0.00 0.06 0.00 67 1011.7
20260902182249 91 271 8.0 14.0 0.00 0.06 0.00 66 1011.8
20260902182149 91 233 9.0 14.0 0.00 0.06 0.00 66 1011.8
20260902182048 91 240 8.0 14.0 0.00 0.06 0.00 66 1011.9
20260902181948 91 269 6.0 12.0 0.00 0.06 0.00 67 1011.8
20260902181848 92 306 6.0 12.0 0.00 0.06 0.00 67 1011.9
20260902181749 92 310 6.0 12.0 0.00 0.06 0.00 67 1011.8
20260902181648 91 271 6.0 12.0 0.00 0.06 0.00 68 1012.0
20260902181548 91 233 7.0 12.0 0.00 0.06 0.00 68 1011.8
20260902181450 91 178 8.0 12.0 0.00 0.06 0.00 69 1012.0
20260902181349 91 192 7.0 14.0 0.00 0.06 0.00 69 1012.0
20260902181249 91 257 6.0 14.0 0.00 0.06 0.00 69 1012.0
20260902181148 91 209 7.0 14.0 0.00 0.06 0.00 69 1012.1
20260902181049 91 240 7.0 14.0 0.00 0.06 0.00 69 1012.1
20260902180948 91 238 6.0 14.0 0.00 0.06 0.00 68 1012.1
20260902180847 91 245 6.0 14.0 0.00 0.06 0.00 68 1012.1
20260902180749 91 288 6.0 14.0 0.00 0.06 0.00 68 1012.2
20260902180649 91 261 7.0 14.0 0.00 0.06 0.00 68 1012.2
20260902180549 91 244 9.0 14.0 0.00 0.06 0.00 69 1012.3
20260902180449 91 238 10.0 14.0 0.00 0.06 0.00 68 1012.2
20260902180348 91 227 10.0 14.0 0.00 0.06 0.00 68 1012.3
20260902180248 91 234 9.0 13.0 0.00 0.06 0.00 68 1012.3
20260902180147 91 212 9.0 13.0 0.00 0.06 0.00 68 1012.3
20260902180051 91 227 8.0 13.0 0.00 0.06 0.00 68 1012.3
20260902175947 91 269 7.0 13.0 0.00 0.06 0.00 68 1012.3
20260902175847 91 223 7.0 13.0 0.00 0.06 0.00 68 1012.4
20260902175749 91 278 6.0 13.0 0.00 0.06 0.00 68 1012.4
20260902175649 91 257 6.0 13.0 0.00 0.06 0.00 68 1012.5
20260902175548 91 233 8.0 13.0 0.00 0.06 0.00 68 1012.5
20260902175447 91 206 9.0 13.0 0.00 0.06 0.00 68 1012.4
20260902175348 91 226 9.0 13.0 0.00 0.06 0.00 68 1012.5
20260902175247 90 243 8.0 12.0 0.00 0.06 0.00 68 1012.5
20260902175147 90 227 8.0 12.0 0.00 0.06 0.00 68 1012.5
20260902175047 91 271 8.0 13.0 0.00 0.06 0.00 69 1012.6
20260902174948 91 265 7.0 13.0 0.00 0.06 0.00 69 1012.6
20260902174848 91 302 6.0 13.0 0.00 0.06 0.00 69 1012.6
20260902174747 91 272 7.0 13.0 0.00 0.06 0.00 69 1012.5
20260902174648 91 261 9.0 13.0 0.00 0.06 0.00 68 1012.6
20260902174547 91 240 9.0 13.0 0.00 0.06 0.00 68 1012.6
20260902174447 91 262 7.0 15.0 0.00 0.06 0.00 69 1012.7
20260902174348 91 238 6.0 15.0 0.00 0.06 0.00 69 1012.7
20260902174248 91 213 7.0 15.0 0.00 0.06 0.00 69 1012.7
20260902174147 91 269 8.0 15.0 0.00 0.06 0.00 69 1012.7
20260902174047 91 235 7.0 15.0 0.00 0.06 0.00 69 1012.7
20260902173947 90 285 8.0 15.0 0.00 0.06 0.00 70 1012.7
20260902173847 90 243 9.0 15.0 0.00 0.06 0.00 70 1012.7
20260902173747 90 226 9.0 15.0 0.00 0.06 0.00 70 1012.7
20260902173648 90 235 10.0 15.0 0.00 0.06 0.00 69 1012.8
20260902173548 90 258 11.0 15.0 0.00 0.06 0.00 69 1012.8
20260902173448 90 245 9.0 16.0 0.00 0.06 0.00 69 1012.8
20260902173348 90 195 8.0 16.0 0.00 0.06 0.00 70 1012.8
20260902173248 90 254 6.0 16.0 0.00 0.06 0.00 70 1012.8
20260902173147 90 234 7.0 16.0 0.00 0.06 0.00 70 1012.8
20260902173047 90 224 8.0 16.0 0.00 0.06 0.00 70 1012.9
20260902172949 90 231 9.0 17.0 0.00 0.06 0.00 70 1012.8
20260902172848 90 199 10.0 17.0 0.00 0.06 0.00 70 1012.9
20260902172747 90 247 10.0 17.0 0.00 0.06 0.00 70 1012.8
20260902172647 89 231 11.0 17.0 0.00 0.06 0.00 71 1012.8
20260902172549 89 219 8.0 17.0 0.00 0.06 0.00 71 1012.9
20260902172447 89 235 8.0 17.0 0.00 0.06 0.00 71 1012.9
20260902172347 89 231 9.0 17.0 0.00 0.06 0.00 71 1013.0
20260902172248 89 274 11.0 17.0 0.00 0.06 0.00 72 1012.9
20260902172147 89 252 12.0 17.0 0.00 0.06 0.00 71 1012.9
20260902172047 89 214 13.0 17.0 0.00 0.06 0.00 71 1013.0
20260902171949 89 240 12.0 17.0 0.00 0.06 0.00 71 1013.0
20260902171847 89 233 12.0 17.0 0.00 0.06 0.00 71 1013.0
20260902171747 89 212 11.0 17.0 0.00 0.06 0.00 72 1013.1
20260902171648 89 250 11.0 17.0 0.00 0.06 0.00 72 1013.0
20260902171549 89 240 11.0 17.0 0.00 0.06 0.00 72 1013.0
20260902171448 89 206 9.0 17.0 0.00 0.06 0.00 73 1013.0
20260902171347 89 243 9.0 14.0 0.00 0.06 0.00 73 1013.1
20260902171247 89 219 10.0 14.0 0.00 0.06 0.00 74 1013.2
20260902171147 89 169 9.0 12.0 0.00 0.06 0.00 75 1013.2
20260902171046 89 250 9.0 14.0 0.00 0.06 0.00 75 1013.2
20260902170946 89 227 7.0 14.0 0.00 0.06 0.00 75 1013.2
20260902170847 88 272 6.0 14.0 0.00 0.06 0.00 75 1013.2
20260902170747 88 193 8.0 14.0 0.00 0.06 0.00 75 1013.2
20260902170646 88 243 7.0 14.0 0.00 0.06 0.00 75 1013.1
20260902170546 88 247 6.0 14.0 0.00 0.06 0.00 76 1013.1
20260902170448 88 237 6.0 14.0 0.00 0.06 0.00 76 1013.2
20260902170346 88 240 6.0 14.0 0.00 0.06 0.00 76 1013.3
20260902170246 88 298 7.0 14.0 0.00 0.06 0.00 76 1013.2
20260902170148 88 290 8.0 14.0 0.00 0.06 0.00 76 1013.2
20260902170047 88 231 7.0 15.0 0.00 0.06 0.00 76 1013.3
20260902165946 88 250 6.0 15.0 0.00 0.06 0.00 76 1013.3
20260902165847 88 257 6.0 15.0 0.00 0.06 0.00 76 1013.3
20260902165747 88 262 6.0 15.0 0.00 0.06 0.00 76 1013.3
20260902165649 88 320 7.0 15.0 0.00 0.06 0.00 76 1013.3
20260902165546 88 288 7.0 15.0 0.00 0.06 0.00 76 1013.4
20260902165447 88 298 6.0 15.0 0.00 0.06 0.00 77 1013.4
20260902165346 88 286 6.0 15.0 0.00 0.06 0.00 77 1013.4
20260902165246 88 296 7.0 15.0 0.00 0.06 0.00 76 1013.3
20260902165147 88 299 7.0 15.0 0.00 0.06 0.00 77 1013.3
20260902165047 88 278 8.0 13.0 0.00 0.06 0.00 76 1013.3
20260902164946 88 257 9.0 14.0 0.00 0.06 0.00 77 1013.4
20260902164846 88 255 7.0 14.0 0.00 0.06 0.00 77 1013.3
20260902164749 88 204 5.0 14.0 0.00 0.06 0.00 77 1013.4
20260902164646 88 264 5.0 14.0 0.00 0.06 0.00 77 1013.3
20260902164545 88 240 7.0 14.0 0.00 0.06 0.00 78 1013.4
20260902164447 88 233 8.0 14.0 0.00 0.06 0.00 78 1013.3
20260902164345 87 247 9.0 14.0 0.00 0.06 0.00 77 1013.4
20260902164246 87 234 8.0 14.0 0.00 0.06 0.00 78 1013.4
20260902164146 87 281 9.0 14.0 0.00 0.06 0.00 78 1013.4
20260902164047 87 209 11.0 14.0 0.00 0.06 0.00 78 1013.4
20260902163947 87 230 10.0 14.0 0.00 0.06 0.00 78 1013.4
20260902163846 87 275 7.0 13.0 0.00 0.06 0.00 78 1013.5
20260902163747 87 250 5.0 13.0 0.00 0.06 0.00 79 1013.5
20260902163646 87 274 6.0 13.0 0.00 0.06 0.00 79 1013.4
20260902163548 87 268 7.0 13.0 0.00 0.06 0.00 79 1013.4
20260902163448 87 324 6.0 13.0 0.00 0.06 0.00 79 1013.4
20260902163347 87 238 6.0 13.0 0.00 0.06 0.00 79 1013.5
20260902163245 87 257 8.0 13.0 0.00 0.06 0.00 79 1013.5
20260902163146 87 286 6.0 13.0 0.00 0.06 0.00 79 1013.4
20260902163047 87 237 5.0 13.0 0.00 0.06 0.00 79 1013.5
20260902162947 87 290 6.0 14.0 0.00 0.06 0.00 79 1013.5
20260902162846 87 344 7.0 14.0 0.00 0.06 0.00 79 1013.4
20260902162747 87 272 9.0 14.0 0.00 0.06 0.00 79 1013.5
20260902162647 87 251 10.0 14.0 0.00 0.06 0.00 79 1013.6
20260902162546 87 251 10.0 14.0 0.00 0.06 0.00 79 1013.5
20260902162447 87 251 10.0 14.0 0.00 0.06 0.00 79 1013.5
20260902162347 87 251 10.0 14.0 0.00 0.06 0.00 79 1013.5
20260902162246 87 251 10.0 14.0 0.00 0.06 0.00 79 1013.5
20260902162133 87 238 10.0 14.0 0.00 0.06 0.00 79 1013.5
20260902162032 87 296 7.0 14.0 0.00 0.06 0.00 79 1013.5
20260902161931 87 314 8.0 14.0 0.00 0.06 0.00 79 1013.5
20260902161831 87 262 9.0 14.0 0.00 0.06 0.00 79 1013.4
20260902161732 87 254 9.0 15.0 0.00 0.06 0.00 79 1013.4
20260902161631 87 278 9.0 15.0 0.00 0.06 0.00 79 1013.5
20260902161532 87 248 8.0 15.0 0.00 0.06 0.00 79 1013.5
20260902161431 87 283 8.0 15.0 0.00 0.06 0.00 79 1013.4
20260902161331 87 209 9.0 15.0 0.00 0.06 0.00 79 1013.5
20260902161232 87 243 8.0 15.0 0.00 0.06 0.00 79 1013.5
20260902161132 87 247 7.0 15.0 0.00 0.06 0.00 79 1013.4
20260902161032 87 300 9.0 16.0 0.00 0.06 0.00 79 1013.5
20260902160931 87 258 9.0 16.0 0.00 0.06 0.00 79 1013.5
20260902160831 87 231 8.0 16.0 0.00 0.06 0.00 79 1013.5
20260902160732 87 281 7.0 16.0 0.00 0.06 0.00 79 1013.5
20260902160632 87 285 7.0 16.0 0.00 0.06 0.00 80 1013.5
20260902160533 87 231 7.0 16.0 0.00 0.06 0.00 80 1013.5
20260902160432 87 247 8.0 16.0 0.00 0.06 0.00 80 1013.5
20260902160332 87 326 8.0 16.0 0.00 0.06 0.00 80 1013.5
20260902160231 87 234 9.0 16.0 0.00 0.06 0.00 80 1013.4
20260902160132 87 252 10.0 16.0 0.00 0.06 0.00 80 1013.5
20260902160032 87 264 9.0 14.0 0.00 0.06 0.00 80 1013.4
20260902155932 87 241 9.0 14.0 0.00 0.06 0.00 80 1013.4
20260902155831 87 269 9.0 14.0 0.00 0.06 0.00 80 1013.4
20260902155730 87 286 9.0 14.0 0.00 0.06 0.00 80 1013.4
20260902155633 87 241 8.0 14.0 0.00 0.06 0.00 80 1013.5
20260902155531 87 268 8.0 14.0 0.00 0.06 0.00 80 1013.4
20260902155431 87 305 7.0 14.0 0.00 0.06 0.00 81 1013.4
20260902155332 87 279 7.0 13.0 0.00 0.06 0.00 81 1013.3
20260902155231 86 299 9.0 13.0 0.00 0.06 0.00 81 1013.4
20260902155131 87 281 6.0 13.0 0.00 0.06 0.00 81 1013.3
20260902155031 87 250 7.0 13.0 0.00 0.06 0.00 81 1013.3
20260902154931 87 276 9.0 13.0 0.00 0.06 0.00 81 1013.3
20260902154832 87 324 8.0 12.0 0.00 0.06 0.00 81 1013.3
20260902154730 87 243 6.0 12.0 0.00 0.06 0.00 81 1013.3
20260902154632 87 247 6.0 12.0 0.00 0.06 0.00 81 1013.2
20260902154532 87 245 5.0 12.0 0.00 0.06 0.00 82 1013.3
20260902154432 86 189 6.0 15.0 0.00 0.06 0.00 82 1013.3
20260902154334 86 203 7.0 16.0 0.00 0.06 0.00 82 1013.3
20260902154232 86 171 7.0 16.0 0.00 0.06 0.00 82 1013.3
20260902154130 86 206 7.0 20.0 0.00 0.06 0.00 82 1013.3
20260902154031 86 203 7.0 20.0 0.00 0.06 0.00 82 1013.3
20260902153932 86 209 6.0 20.0 0.00 0.06 0.00 82 1013.2
20260902153832 86 214 6.0 20.0 0.00 0.06 0.00 82 1013.3
20260902153731 86 245 6.0 20.0 0.00 0.06 0.00 82 1013.2
20260902153632 86 202 9.0 20.0 0.00 0.06 0.00 82 1013.3
20260902153532 85 200 11.0 20.0 0.00 0.06 0.00 82 1013.3
20260902153432 86 213 13.0 20.0 0.00 0.06 0.00 82 1013.3
20260902153331 86 203 12.0 20.0 0.00 0.06 0.00 82 1013.4
20260902153232 86 183 11.0 20.0 0.00 0.06 0.00 82 1013.3
20260902153131 86 169 11.0 16.0 0.00 0.06 0.00 82 1013.3
20260902153031 86 159 10.0 16.0 0.00 0.06 0.00 82 1013.2
20260902152932 86 125 9.0 16.0 0.00 0.06 0.00 82 1013.3
20260902152831 85 145 7.0 14.0 0.00 0.06 0.00 83 1013.3
20260902152731 85 178 5.0 14.0 0.00 0.06 0.00 82 1013.3
20260902152633 85 189 6.0 14.0 0.00 0.06 0.00 82 1013.2
20260902152526 85 188 6.0 14.0 0.00 0.06 0.00 83 1013.4
20260902152424 85 142 6.0 15.0 0.00 0.06 0.00 83 1013.2
20260902152324 85 178 7.0 15.0 0.00 0.06 0.00 83 1013.3
20260902152221 85 173 6.0 15.0 0.00 0.06 0.00 84 1013.3
20260902152121 85 172 7.0 15.0 0.00 0.06 0.00 84 1013.2
20260902152018 85 154 9.0 15.0 0.00 0.06 0.00 84 1013.2
20260902151918 85 168 9.0 17.0 0.00 0.06 0.00 84 1013.2
20260902151815 85 155 8.0 18.0 0.00 0.06 0.00 84 1013.3
20260902151714 85 152 9.0 19.0 0.00 0.06 0.00 84 1013.2
20260902151609 85 161 9.0 19.0 0.00 0.06 0.00 84 1013.2
20260902151509 85 168 9.0 19.0 0.00 0.06 0.00 84 1013.3
20260902151406 85 173 9.0 19.0 0.00 0.06 0.00 84 1013.3
20260902151305 85 149 5.0 19.0 0.00 0.06 0.00 84 1013.2
20260902151205 85 179 10.0 19.0 0.00 0.06 0.00 84 1013.3
20260902151103 85 179 10.0 19.0 0.00 0.06 0.00 84 1013.3
20260902150959 85 0 12.0 19.0 0.00 0.06 0.00 84 1013.3
20260902150857 85 224 11.0 19.0 0.00 0.06 0.00 85 1013.2
20260902150757 85 219 9.0 16.0 0.00 0.06 0.00 85 1013.2
20260902150654 85 224 7.0 17.0 0.00 0.06 0.00 85 1013.3
20260902150552 85 293 8.0 17.0 0.00 0.06 0.00 85 1013.3
20260902150453 85 299 10.0 17.0 0.00 0.06 0.00 86 1013.2
20260902150348 85 272 11.0 17.0 0.00 0.06 0.00 85 1013.2
20260902150247 85 238 11.0 17.0 0.00 0.06 0.00 86 1013.3
20260902150146 85 237 10.0 17.0 0.00 0.06 0.00 86 1013.2
20260902150048 85 224 11.0 17.0 0.00 0.06 0.00 86 1013.2
20260902145944 85 235 10.0 17.0 0.00 0.06 0.00 86 1013.2
20260902145843 84 250 11.0 17.0 0.00 0.06 0.00 86 1013.2
20260902145743 84 235 11.0 17.0 0.00 0.06 0.00 86 1013.1
20260902145645 84 224 8.0 16.0 0.00 0.06 0.00 86 1013.2
20260902145543 84 259 8.0 16.0 0.00 0.06 0.00 86 1013.1
20260902145444 84 248 10.0 16.0 0.00 0.06 0.00 86 1013.3
20260902145345 84 278 9.0 16.0 0.00 0.06 0.00 86 1013.2
20260902145243 84 251 7.0 16.0 0.00 0.06 0.00 86 1013.2
20260902145143 84 227 7.0 15.0 0.00 0.06 0.00 87 1013.1
20260902145043 84 259 8.0 15.0 0.00 0.06 0.00 87 1013.1
20260902144945 84 255 8.0 15.0 0.00 0.06 0.00 87 1013.1
20260902144844 84 227 9.0 15.0 0.00 0.06 0.00 87 1013.1
20260902144743 84 202 9.0 15.0 0.00 0.06 0.00 87 1013.2
20260902144644 84 212 7.0 14.0 0.00 0.06 0.00 87 1013.1
20260902144544 84 272 7.0 14.0 0.00 0.06 0.00 87 1013.1
20260902144443 84 261 7.0 13.0 0.00 0.06 0.00 87 1013.2
20260902144343 84 262 8.0 13.0 0.00 0.06 0.00 88 1013.2
20260902144246 84 251 9.0 13.0 0.00 0.06 0.00 87 1013.2
20260902144143 84 264 6.0 11.0 0.00 0.06 0.00 88 1013.2
20260902144043 84 255 4.0 11.0 0.00 0.06 0.00 88 1013.2
20260902143945 84 235 5.0 11.0 0.00 0.06 0.00 88 1013.2
20260902143843 83 279 6.0 11.0 0.00 0.06 0.00 88 1013.2
20260902143745 83 265 6.0 11.0 0.00 0.06 0.00 88 1013.2
20260902143645 83 235 7.0 11.0 0.00 0.06 0.00 88 1013.2
20260902143543 83 217 7.0 11.0 0.00 0.06 0.00 88 1013.2
20260902143444 83 235 6.0 11.0 0.00 0.06 0.00 88 1013.2
20260902143343 83 296 6.0 13.0 0.00 0.06 0.00 88 1013.3
20260902143244 83 244 5.0 13.0 0.00 0.06 0.00 88 1013.1
20260902143144 83 288 5.0 13.0 0.00 0.06 0.00 89 1013.1
20260902143044 83 213 6.0 13.0 0.00 0.06 0.00 89 1013.1
20260902142943 83 255 6.0 13.0 0.00 0.06 0.00 89 1013.1
20260902142844 83 212 6.0 13.0 0.00 0.06 0.00 89 1013.1
20260902142743 83 250 6.0 13.0 0.00 0.06 0.00 89 1013.1
20260902142645 83 247 7.0 13.0 0.00 0.06 0.00 89 1013.1
20260902142544 83 247 7.0 13.0 0.00 0.06 0.00 89 1013.2
20260902142443 83 238 7.0 13.0 0.00 0.06 0.00 89 1013.1
20260902142343 83 188 7.0 13.0 0.00 0.06 0.00 89 1013.2
20260902142244 83 262 6.0 13.0 0.00 0.06 0.00 89 1013.1
20260902142143 83 278 6.0 13.0 0.00 0.06 0.00 89 1013.2
20260902142043 83 254 6.0 13.0 0.00 0.06 0.00 89 1013.1
20260902141942 83 251 7.0 13.0 0.00 0.06 0.00 89 1013.1
20260902141845 83 259 7.0 13.0 0.00 0.06 0.00 89 1013.1
20260902141744 83 223 8.0 13.0 0.00 0.06 0.00 89 1013.1
20260902141643 83 221 7.0 13.0 0.00 0.06 0.00 89 1013.2
20260902141543 83 207 6.0 13.0 0.00 0.06 0.00 89 1013.1
20260902141443 83 223 6.0 13.0 0.00 0.06 0.00 89 1013.2
20260902141343 83 227 5.0 13.0 0.00 0.06 0.00 89 1013.2
20260902141242 83 255 6.0 13.0 0.00 0.06 0.00 89 1013.0
20260902141143 83 272 6.0 14.0 0.00 0.06 0.00 89 1013.1
20260902141042 83 252 7.0 14.0 0.00 0.06 0.00 89 1013.2
20260902140942 83 237 8.0 14.0 0.00 0.06 0.00 89 1013.1
20260902140845 83 252 9.0 14.0 0.00 0.06 0.00 89 1013.0
20260902140743 83 221 8.0 14.0 0.00 0.06 0.00 89 1013.1
20260902140644 83 221 7.0 14.0 0.00 0.06 0.00 89 1013.1
20260902140543 83 247 7.0 14.0 0.00 0.06 0.00 89 1013.0
20260902140443 83 241 7.0 14.0 0.00 0.06 0.00 89 1013.1
20260902140343 83 243 9.0 14.0 0.00 0.06 0.00 89 1013.0
20260902140244 83 299 10.0 14.0 0.00 0.06 0.00 89 1013.1
20260902140144 83 210 9.0 14.0 0.00 0.06 0.00 89 1013.0
20260902140042 83 269 8.0 14.0 0.00 0.06 0.00 89 1013.1
20260902135942 83 247 6.0 14.0 0.00 0.06 0.00 89 1013.1
20260902135842 83 228 7.0 14.0 0.00 0.06 0.00 89 1013.1
20260902135744 83 219 8.0 14.0 0.00 0.06 0.00 89 1013.0
20260902135643 83 238 8.0 14.0 0.00 0.06 0.00 89 1013.0
20260902135542 83 288 7.0 12.0 0.00 0.06 0.00 89 1013.1
20260902135443 83 227 6.0 12.0 0.00 0.06 0.00 89 1013.1
20260902135345 83 259 6.0 12.0 0.00 0.06 0.00 89 1013.1
20260902135242 83 226 6.0 12.0 0.00 0.06 0.00 90 1013.1
20260902135142 83 283 5.0 12.0 0.00 0.06 0.00 90 1013.0
20260902135044 83 279 6.0 12.0 0.00 0.06 0.00 90 1013.0
20260902134942 82 240 7.0 12.0 0.00 0.06 0.00 90 1013.0
20260902134842 82 240 7.0 12.0 0.00 0.06 0.00 90 1013.1
20260902134744 82 238 7.0 12.0 0.00 0.06 0.00 90 1013.0
20260902134641 82 230 7.0 12.0 0.00 0.06 0.00 90 1013.0
20260902134543 82 268 7.0 12.0 0.00 0.06 0.00 90 1013.0
20260902134443 82 245 7.0 12.0 0.00 0.06 0.00 90 1013.0
20260902134343 82 235 7.0 12.0 0.00 0.06 0.00 90 1013.0
20260902134242 82 293 7.0 12.0 0.00 0.06 0.00 90 1013.0
20260902134141 82 309 7.0 12.0 0.00 0.06 0.00 90 1013.0
20260902134043 82 244 7.0 13.0 0.00 0.06 0.00 90 1013.0
20260902133942 82 227 8.0 13.0 0.00 0.06 0.00 90 1013.0
20260902133842 82 231 6.0 15.0 0.00 0.06 0.00 90 1013.0
20260902133743 82 228 6.0 15.0 0.00 0.06 0.00 90 1013.0
20260902133642 82 281 6.0 15.0 0.00 0.06 0.00 90 1013.1
20260902133541 82 237 6.0 15.0 0.00 0.06 0.00 90 1013.0
20260902133442 82 237 6.0 15.0 0.00 0.06 0.00 91 1013.1
20260902133342 82 235 6.0 15.0 0.00 0.06 0.00 91 1013.1
20260902133243 82 264 7.0 15.0 0.00 0.06 0.00 90 1013.1
20260902133142 82 285 9.0 15.0 0.00 0.06 0.00 90 1013.0
20260902133042 82 268 10.0 15.0 0.00 0.06 0.00 90 1013.0
20260902132943 82 203 8.0 15.0 0.00 0.06 0.00 91 1013.0
20260902132841 82 262 7.0 11.0 0.00 0.06 0.00 91 1013.0
20260902132741 82 266 6.0 11.0 0.00 0.06 0.00 91 1013.0
20260902132643 82 234 6.0 11.0 0.00 0.06 0.00 91 1012.9
20260902132541 82 207 7.0 11.0 0.00 0.06 0.00 91 1012.9
20260902132441 82 224 7.0 11.0 0.00 0.06 0.00 91 1012.9
20260902132342 82 231 7.0 11.0 0.00 0.06 0.00 91 1012.9
20260902132242 82 188 7.0 11.0 0.00 0.06 0.00 91 1012.8
20260902132141 82 244 7.0 11.0 0.00 0.06 0.00 91 1012.9
20260902132041 82 210 6.0 11.0 0.00 0.06 0.00 91 1012.8
20260902131942 82 247 6.0 11.0 0.00 0.06 0.00 91 1012.8
20260902131841 82 223 7.0 11.0 0.00 0.06 0.00 91 1012.8
20260902131741 82 240 6.0 11.0 0.00 0.06 0.00 91 1012.8
20260902131641 82 245 6.0 11.0 0.00 0.06 0.00 91 1012.8
20260902131541 82 219 6.0 14.0 0.00 0.06 0.00 91 1012.8
20260902131441 82 219 7.0 14.0 0.00 0.06 0.00 91 1012.8
20260902131341 82 235 7.0 14.0 0.00 0.06 0.00 91 1012.8
20260902131242 82 219 6.0 14.0 0.00 0.06 0.00 91 1012.8
20260902131141 82 244 7.0 14.0 0.00 0.06 0.00 91 1012.8
20260902131041 82 216 7.0 14.0 0.00 0.06 0.00 91 1012.7
20260902130942 82 238 7.0 14.0 0.00 0.06 0.00 91 1012.7
20260902130842 82 234 6.0 14.0 0.00 0.06 0.00 91 1012.7
20260902130741 82 247 8.0 14.0 0.00 0.06 0.00 91 1012.6
20260902130641 82 228 9.0 14.0 0.00 0.06 0.00 91 1012.6
20260902130543 82 248 8.0 13.0 0.00 0.06 0.00 91 1012.7
20260902130440 82 234 7.0 12.0 0.00 0.06 0.00 91 1012.7
20260902130341 82 234 6.0 12.0 0.00 0.06 0.00 91 1012.7
20260902130243 82 255 6.0 10.0 0.00 0.06 0.00 91 1012.7
20260902130141 82 219 5.0 10.0 0.00 0.06 0.00 91 1012.7
20260902130041 82 282 6.0 10.0 0.00 0.06 0.00 91 1012.7
20260902125941 82 224 6.0 10.0 0.00 0.06 0.00 91 1012.7
20260902125843 82 243 7.0 12.0 0.00 0.06 0.00 91 1012.7
20260902125742 82 238 7.0 13.0 0.00 0.06 0.00 91 1012.7
20260902125641 82 258 7.0 13.0 0.00 0.06 0.00 91 1012.8
20260902125542 82 231 7.0 13.0 0.00 0.06 0.00 91 1012.7
20260902125441 82 258 6.0 13.0 0.00 0.06 0.00 91 1012.7
20260902125341 82 266 6.0 13.0 0.00 0.06 0.00 92 1012.7
20260902125242 82 230 5.0 13.0 0.00 0.06 0.00 91 1012.7
20260902125142 82 276 6.0 13.0 0.00 0.06 0.00 92 1012.7
20260902125041 82 213 8.0 13.0 0.00 0.06 0.00 91 1012.7
20260902124939 82 223 9.0 13.0 0.00 0.06 0.00 91 1012.6
20260902124839 82 227 8.0 14.0 0.00 0.06 0.00 91 1012.5
20260902124736 82 220 7.0 14.0 0.00 0.06 0.00 91 1012.5
20260902124635 82 268 8.0 14.0 0.00 0.06 0.00 91 1012.5
20260902124533 82 240 7.0 14.0 0.00 0.06 0.00 91 1012.4
20260902124431 82 243 7.0 14.0 0.00 0.06 0.00 91 1012.5
20260902124331 82 230 8.0 15.0 0.00 0.06 0.00 91 1012.5
20260902124231 82 261 9.0 15.0 0.00 0.06 0.00 91 1012.4
20260902124128 82 247 8.0 15.0 0.00 0.06 0.00 91 1012.4
20260902124026 82 257 9.0 15.0 0.00 0.06 0.00 91 1012.5
20260902123925 82 271 9.0 15.0 0.00 0.06 0.00 91 1012.4
20260902123823 82 278 9.0 15.0 0.00 0.06 0.00 91 1012.5
20260902123722 82 220 9.0 15.0 0.00 0.06 0.00 91 1012.4
20260902123620 82 235 10.0 15.0 0.00 0.06 0.00 91 1012.4
20260902123518 82 214 11.0 15.0 0.00 0.06 0.00 91 1012.4
20260902123417 82 248 9.0 15.0 0.00 0.06 0.00 91 1012.4
20260902123315 82 234 9.0 15.0 0.00 0.06 0.00 91 1012.4
20260902123215 82 233 9.0 15.0 0.00 0.06 0.00 91 1012.4
20260902123113 82 244 9.0 15.0 0.00 0.06 0.00 91 1012.4
20260902123011 82 234 9.0 15.0 0.00 0.06 0.00 91 1012.4
20260902122909 82 257 8.0 14.0 0.00 0.06 0.00 91 1012.4
20260902122808 82 231 8.0 14.0 0.00 0.06 0.00 91 1012.3
20260902122707 82 288 7.0 14.0 0.00 0.06 0.00 91 1012.3
20260902122605 82 290 7.0 14.0 0.00 0.06 0.00 91 1012.2
20260902122503 82 264 8.0 14.0 0.00 0.06 0.00 91 1012.1
20260902122403 82 244 7.0 14.0 0.00 0.06 0.00 91 1012.1
20260902122305 82 248 6.0 14.0 0.00 0.06 0.00 91 1012.0
20260902122202 82 264 6.0 14.0 0.00 0.06 0.00 91 1012.0
20260902122102 82 288 6.0 14.0 0.00 0.06 0.00 91 1012.0
20260902122002 82 230 7.0 14.0 0.00 0.06 0.00 91 1011.9
20260902121903 82 227 8.0 14.0 0.00 0.06 0.00 91 1011.9
20260902121802 82 233 9.0 14.0 0.00 0.06 0.00 91 1011.8
20260902121702 82 247 9.0 14.0 0.00 0.06 0.00 91 1011.8
20260902121602 82 248 8.0 14.0 0.00 0.06 0.00 91 1011.7
20260902121504 81 233 8.0 14.0 0.00 0.06 0.00 91 1011.7
20260902121403 81 282 9.0 14.0 0.00 0.06 0.00 91 1011.7
20260902121302 81 251 8.0 13.0 0.00 0.06 0.00 91 1011.6
20260902121204 81 250 7.0 13.0 0.00 0.06 0.00 91 1011.5
20260902121103 82 245 7.0 13.0 0.00 0.06 0.00 91 1011.5
20260902121004 81 255 9.0 13.0 0.00 0.06 0.00 91 1011.4
20260902120904 81 234 9.0 13.0 0.00 0.06 0.00 91 1011.5
20260902120803 81 220 8.0 16.0 0.00 0.06 0.00 91 1011.4
20260902120702 81 248 7.0 16.0 0.00 0.06 0.00 91 1011.3
20260902120602 81 223 8.0 17.0 0.00 0.06 0.00 91 1011.4
20260902120504 81 233 8.0 17.0 0.00 0.06 0.00 91 1011.3
20260902120402 81 258 8.0 17.0 0.00 0.06 0.00 91 1011.3
20260902120302 81 250 8.0 17.0 0.00 0.06 0.00 91 1011.3
20260902120203 81 219 9.0 17.0 0.00 0.06 0.00 91 1011.3
20260902120002 81 252 11.0 17.0 0.00 0.06 0.00 91 1011.3
20260902115902 81 214 11.0 17.0 0.00 0.06 0.00 91 1011.2
20260902115804 81 219 11.0 17.0 0.00 0.06 0.00 91 1011.3
20260902115703 81 255 11.0 17.0 0.00 0.06 0.00 91 1011.3
20260902115602 81 233 11.0 16.0 0.00 0.06 0.00 91 1011.2
20260902115503 81 230 11.0 16.0 0.00 0.06 0.00 91 1011.3
20260902115402 81 217 11.0 16.0 0.00 0.06 0.00 91 1011.3
20260902115306 81 224 10.0 14.0 0.00 0.06 0.00 91 1011.2
20260902115202 81 223 9.0 13.0 0.00 0.06 0.00 91 1011.2
20260902115103 81 224 10.0 13.0 0.00 0.06 0.00 91 1011.2
20260902115002 81 241 10.0 13.0 0.00 0.06 0.00 91 1011.3
20260902114902 81 199 8.0 14.0 0.00 0.06 0.00 91 1011.3
20260902114804 81 226 7.0 14.0 0.00 0.06 0.00 91 1011.3
20260902114703 81 247 8.0 14.0 0.00 0.06 0.00 91 1011.3
20260902114603 81 252 8.0 14.0 0.00 0.06 0.00 91 1011.3
20260902114503 81 230 8.0 14.0 0.00 0.06 0.00 91 1011.3
20260902114402 81 216 9.0 14.0 0.00 0.06 0.00 91 1011.3
20260902114302 81 234 8.0 14.0 0.00 0.06 0.00 91 1011.3
20260902114202 81 271 8.0 14.0 0.00 0.06 0.00 91 1011.2
20260902114104 82 238 9.0 14.0 0.00 0.06 0.00 91 1011.3
20260902114002 82 255 10.0 14.0 0.00 0.06 0.00 91 1011.2
20260902113902 81 233 8.0 14.0 0.00 0.06 0.00 91 1011.2
20260902113803 82 233 7.0 12.0 0.00 0.06 0.00 91 1011.3
20260902113702 82 237 7.0 14.0 0.00 0.06 0.00 91 1011.3
20260902113602 82 262 8.0 14.0 0.00 0.06 0.00 91 1011.4
20260902113503 81 234 8.0 14.0 0.00 0.06 0.00 91 1011.4
20260902113403 82 220 8.0 14.0 0.00 0.06 0.00 91 1011.3
20260902113303 82 258 8.0 15.0 0.00 0.06 0.00 91 1011.4
20260902113202 82 238 6.0 15.0 0.00 0.06 0.00 91 1011.3
20260902113104 82 250 7.0 15.0 0.00 0.06 0.00 91 1011.3
20260902113003 82 241 7.0 16.0 0.00 0.06 0.00 91 1011.4
20260902112903 82 261 8.0 16.0 0.00 0.06 0.00 91 1011.3
20260902112803 82 248 9.0 16.0 0.00 0.06 0.00 91 1011.4
20260902112703 82 238 9.0 16.0 0.00 0.06 0.00 91 1011.3
20260902112602 82 259 10.0 16.0 0.00 0.06 0.00 90 1011.3
20260902112502 82 228 10.0 16.0 0.00 0.06 0.00 90 1011.4
20260902112403 82 247 9.0 16.0 0.00 0.06 0.00 90 1011.3
20260902112305 82 224 9.0 16.0 0.00 0.06 0.00 90 1011.3
20260902112201 82 240 9.0 16.0 0.00 0.06 0.00 90 1011.3
20260902112103 82 212 10.0 16.0 0.00 0.06 0.00 90 1011.3
20260902112004 82 238 10.0 15.0 0.00 0.06 0.00 90 1011.3
20260902111902 82 248 8.0 15.0 0.00 0.06 0.00 90 1011.3
20260902111801 82 230 8.0 15.0 0.00 0.06 0.00 90 1011.3
20260902111703 82 234 9.0 15.0 0.00 0.06 0.00 90 1011.3
20260902111602 82 213 9.0 15.0 0.00 0.06 0.00 90 1011.3
20260902111502 82 235 10.0 14.0 0.00 0.06 0.00 90 1011.3
20260902111403 82 214 10.0 14.0 0.00 0.06 0.00 90 1011.3
20260902111303 82 217 9.0 12.0 0.00 0.06 0.00 90 1011.3
20260902111201 82 244 9.0 12.0 0.00 0.06 0.00 90 1011.3
20260902111103 82 228 9.0 12.0 0.00 0.06 0.00 90 1011.2
20260902111003 82 243 8.0 12.0 0.00 0.06 0.00 90 1011.2
20260902110902 82 234 8.0 14.0 0.00 0.06 0.00 90 1011.2
20260902110802 82 241 7.0 14.0 0.00 0.06 0.00 90 1011.3
20260902110703 82 226 8.0 14.0 0.00 0.06 0.00 90 1011.2
20260902110602 82 261 8.0 14.0 0.00 0.06 0.00 90 1011.2
20260902110502 82 244 8.0 14.0 0.00 0.06 0.00 90 1011.1
20260902110403 82 258 8.0 14.0 0.00 0.06 0.00 90 1011.1
20260902110301 82 223 7.0 14.0 0.00 0.06 0.00 90 1011.2
20260902110203 82 206 8.0 16.0 0.00 0.06 0.00 90 1011.2
20260902110005 82 235 9.0 16.0 0.00 0.06 0.00 90 1011.1
20260902105902 82 237 7.0 16.0 0.00 0.06 0.00 90 1011.2
20260902105802 82 233 7.0 16.0 0.00 0.06 0.00 90 1011.2
20260902105703 82 240 7.0 16.0 0.00 0.06 0.00 90 1011.2
20260902105602 82 258 9.0 16.0 0.00 0.06 0.00 90 1011.1
20260902105503 82 213 9.0 16.0 0.00 0.06 0.00 90 1011.2
20260902105402 82 216 10.0 19.0 0.00 0.06 0.00 90 1011.2
20260902105306 82 219 11.0 20.0 0.00 0.06 0.00 90 1011.2
20260902105202 82 233 11.0 20.0 0.00 0.06 0.00 90 1011.2
20260902105101 82 237 10.0 20.0 0.00 0.06 0.00 90 1011.2
20260902104958 82 230 9.0 20.0 0.00 0.06 0.00 90 1011.2
20260902104857 82 213 7.0 20.0 0.00 0.06 0.00 90 1011.2
20260902104756 82 200 7.0 20.0 0.00 0.06 0.00 90 1011.2
20260902104655 82 255 9.0 20.0 0.00 0.06 0.00 90 1011.2
20260902104552 82 237 11.0 20.0 0.00 0.06 0.00 90 1011.2
20260902104452 82 243 12.0 20.0 0.00 0.06 0.00 90 1011.3
20260902104349 82 243 11.0 17.0 0.00 0.06 0.00 90 1011.2
20260902104248 82 244 9.0 15.0 0.00 0.06 0.00 90 1011.3
20260902104147 82 199 10.0 17.0 0.00 0.06 0.00 90 1011.3
20260902104045 82 248 10.0 17.0 0.00 0.06 0.00 90 1011.2
20260902103943 82 233 9.0 17.0 0.00 0.06 0.00 90 1011.3
20260902103842 82 254 9.0 17.0 0.00 0.06 0.00 90 1011.2
20260902103740 82 245 9.0 17.0 0.00 0.06 0.00 90 1011.3
20260902103640 82 238 9.0 17.0 0.00 0.06 0.00 90 1011.2
20260902103537 82 230 9.0 17.0 0.00 0.06 0.00 90 1011.2
20260902103437 82 240 8.0 17.0 0.00 0.06 0.00 90 1011.3
20260902103337 82 234 10.0 17.0 0.00 0.06 0.00 90 1011.3
20260902103239 82 254 10.0 17.0 0.00 0.06 0.00 90 1011.3
20260902103139 82 251 9.0 15.0 0.00 0.06 0.00 89 1011.3
20260902103038 82 227 8.0 15.0 0.00 0.06 0.00 89 1011.4
20260902102939 82 247 8.0 15.0 0.00 0.06 0.00 89 1011.3
20260902102837 82 240 9.0 15.0 0.00 0.06 0.00 89 1011.3
20260902102737 82 221 10.0 15.0 0.00 0.06 0.00 89 1011.3
20260902102637 82 228 9.0 15.0 0.00 0.06 0.00 89 1011.3
20260902102538 82 216 9.0 15.0 0.00 0.06 0.00 89 1011.2
20260902102438 82 238 10.0 15.0 0.00 0.06 0.00 89 1011.3
20260902102338 82 248 10.0 15.0 0.00 0.06 0.00 89 1011.3
20260902102238 82 243 9.0 15.0 0.00 0.06 0.00 89 1011.4
20260902102137 82 223 7.0 15.0 0.00 0.06 0.00 89 1011.4
20260902102037 82 271 7.0 15.0 0.00 0.06 0.00 89 1011.4
20260902101938 82 241 9.0 15.0 0.00 0.06 0.00 89 1011.3
20260902101837 82 226 10.0 15.0 0.00 0.06 0.00 89 1011.4
20260902101737 82 281 9.0 14.0 0.00 0.06 0.00 89 1011.4
20260902101637 82 247 9.0 15.0 0.00 0.06 0.00 89 1011.4
20260902101538 82 254 10.0 15.0 0.00 0.06 0.00 89 1011.5
20260902101437 82 255 9.0 15.0 0.00 0.06 0.00 89 1011.4
20260902101337 82 245 8.0 15.0 0.00 0.06 0.00 89 1011.4
20260902101238 82 254 8.0 15.0 0.00 0.06 0.00 89 1011.4
20260902101138 82 248 9.0 15.0 0.00 0.06 0.00 89 1011.3
20260902101039 82 257 10.0 15.0 0.00 0.06 0.00 89 1011.4
20260902100938 82 285 10.0 15.0 0.00 0.06 0.00 89 1011.4
20260902100840 82 223 10.0 15.0 0.00 0.06 0.00 89 1011.3
20260902100740 82 233 9.0 15.0 0.00 0.06 0.00 89 1011.4
20260902100637 82 258 9.0 15.0 0.00 0.06 0.00 89 1011.3
20260902100538 82 279 10.0 15.0 0.00 0.06 0.00 89 1011.3
20260902100437 82 255 9.0 15.0 0.00 0.06 0.00 89 1011.4
20260902100338 82 219 8.0 17.0 0.00 0.06 0.00 89 1011.3
20260902100239 82 224 9.0 17.0 0.00 0.06 0.00 89 1011.3
20260902100139 82 271 9.0 17.0 0.00 0.06 0.00 89 1011.3
20260902100038 82 223 8.0 17.0 0.00 0.06 0.00 89 1011.3
20260902095936 82 261 7.0 17.0 0.00 0.06 0.00 89 1011.3
20260902095838 82 247 7.0 17.0 0.00 0.06 0.00 89 1011.3
20260902095737 82 235 8.0 17.0 0.00 0.06 0.00 89 1011.3
20260902095637 82 288 10.0 17.0 0.00 0.06 0.00 89 1011.3
20260902095538 82 234 12.0 17.0 0.00 0.06 0.00 89 1011.3
20260902095437 82 217 10.0 17.0 0.00 0.06 0.00 89 1011.3
20260902095336 82 226 9.0 17.0 0.00 0.06 0.00 89 1011.4
20260902095238 82 245 11.0 17.0 0.00 0.06 0.00 89 1011.3
20260902095137 82 219 9.0 15.0 0.00 0.06 0.00 89 1011.3
20260902095036 82 231 10.0 15.0 0.00 0.06 0.00 89 1011.3
20260902094936 82 200 10.0 15.0 0.00 0.06 0.00 89 1011.3
20260902094837 82 243 8.0 15.0 0.00 0.06 0.00 89 1011.2
20260902094737 82 252 8.0 15.0 0.00 0.06 0.00 89 1011.2
20260902094636 82 271 9.0 15.0 0.00 0.06 0.00 89 1011.3
20260902094537 82 216 10.0 15.0 0.00 0.06 0.00 89 1011.2
20260902094438 82 223 10.0 15.0 0.00 0.06 0.00 89 1011.2
20260902094336 82 254 9.0 16.0 0.00 0.06 0.00 89 1011.2
20260902094236 82 264 9.0 16.0 0.00 0.06 0.00 89 1011.2
20260902094138 82 250 11.0 17.0 0.00 0.06 0.00 89 1011.1
20260902094038 82 217 11.0 17.0 0.00 0.06 0.00 89 1011.1
20260902093938 82 262 10.0 18.0 0.00 0.06 0.00 89 1011.2
20260902093836 82 195 9.0 18.0 0.00 0.06 0.00 89 1011.2
20260902093737 82 209 9.0 18.0 0.00 0.06 0.00 89 1011.2
20260902093637 82 226 9.0 18.0 0.00 0.06 0.00 89 1011.1
20260902093538 82 264 9.0 18.0 0.00 0.06 0.00 88 1011.2
20260902093437 82 298 10.0 18.0 0.00 0.06 0.00 88 1011.1
20260902093337 82 221 11.0 18.0 0.00 0.06 0.00 88 1011.1
20260902093237 82 220 10.0 18.0 0.00 0.06 0.00 88 1011.1
20260902093137 82 193 10.0 18.0 0.00 0.06 0.00 88 1011.1
20260902093038 82 255 11.0 18.0 0.00 0.06 0.00 88 1011.1
20260902092938 82 240 10.0 18.0 0.00 0.06 0.00 88 1011.2
20260902092836 82 245 10.0 15.0 0.00 0.06 0.00 88 1011.2
20260902092738 82 272 9.0 15.0 0.00 0.06 0.00 88 1011.2
20260902092636 82 265 9.0 15.0 0.00 0.06 0.00 88 1011.2
20260902092536 82 269 9.0 15.0 0.00 0.06 0.00 88 1011.2
20260902092435 82 235 10.0 15.0 0.00 0.06 0.00 88 1011.2
20260902092337 82 248 10.0 17.0 0.00 0.06 0.00 88 1011.3
20260902092237 82 216 10.0 17.0 0.00 0.06 0.00 88 1011.2
20260902092136 82 238 10.0 17.0 0.00 0.06 0.00 88 1011.3
20260902092039 82 217 9.0 17.0 0.00 0.06 0.00 88 1011.2
20260902091935 82 223 10.0 17.0 0.00 0.06 0.00 88 1011.1
20260902091836 82 252 10.0 17.0 0.00 0.06 0.00 88 1011.1
20260902091738 82 186 11.0 17.0 0.00 0.06 0.00 88 1011.1
20260902091638 82 217 11.0 17.0 0.00 0.06 0.00 88 1011.1
20260902091536 82 237 11.0 17.0 0.00 0.06 0.00 88 1011.1
20260902091436 82 248 11.0 17.0 0.00 0.06 0.00 88 1011.1
20260902091338 82 224 10.0 16.0 0.00 0.06 0.00 88 1011.1
20260902091236 82 230 11.0 16.0 0.00 0.06 0.00 87 1011.1
20260902091136 82 238 12.0 16.0 0.00 0.06 0.00 87 1011.1
20260902091038 82 237 11.0 16.0 0.00 0.06 0.00 87 1011.1
20260902090936 82 220 10.0 16.0 0.00 0.06 0.00 87 1011.0
20260902090835 82 248 11.0 16.0 0.00 0.06 0.00 87 1011.2
20260902090735 82 245 10.0 15.0 0.00 0.06 0.00 87 1011.1
20260902090636 82 226 9.0 16.0 0.00 0.06 0.00 87 1011.1
20260902090536 82 241 10.0 17.0 0.00 0.06 0.00 87 1011.0
20260902090435 82 219 10.0 17.0 0.00 0.06 0.00 87 1011.1
20260902090335 82 244 10.0 17.0 0.00 0.06 0.00 87 1011.1
20260902090236 82 259 10.0 17.0 0.00 0.06 0.00 87 1011.1
20260902090136 82 250 9.0 17.0 0.00 0.06 0.00 87 1011.1
20260902090037 82 261 10.0 17.0 0.00 0.06 0.00 87 1011.1
20260902085936 82 283 10.0 17.0 0.00 0.06 0.00 87 1011.1
20260902085835 82 228 11.0 17.0 0.00 0.06 0.00 87 1011.1
20260902085735 82 231 11.0 17.0 0.00 0.06 0.00 87 1011.1
20260902085635 82 237 10.0 17.0 0.00 0.06 0.00 87 1011.1
20260902085536 82 238 10.0 17.0 0.00 0.06 0.00 87 1011.1
20260902085434 82 264 11.0 17.0 0.00 0.06 0.00 87 1011.1
20260902085332 82 216 11.0 17.0 0.00 0.06 0.00 87 1011.1
20260902085234 82 224 9.0 17.0 0.00 0.06 0.00 87 1011.1
20260902085130 82 243 11.0 17.0 0.00 0.06 0.00 87 1011.0
20260902085031 82 224 11.0 17.0 0.00 0.06 0.00 87 1011.0
20260902084933 82 214 11.0 16.0 0.00 0.06 0.00 87 1011.0
20260902084832 82 224 11.0 16.0 0.00 0.06 0.00 87 1011.1
20260902084731 82 223 11.0 16.0 0.00 0.06 0.00 87 1011.1
20260902084632 82 226 11.0 16.0 0.00 0.06 0.00 87 1011.1
20260902084532 82 221 11.0 16.0 0.00 0.06 0.00 86 1011.0
20260902084431 82 230 10.0 16.0 0.00 0.06 0.00 87 1011.1
20260902084331 82 234 10.0 16.0 0.00 0.06 0.00 86 1011.1
20260902084232 82 275 10.0 16.0 0.00 0.06 0.00 86 1011.0
20260902084132 82 244 9.0 16.0 0.00 0.06 0.00 86 1011.0
20260902084032 82 180 9.0 16.0 0.00 0.06 0.00 86 1011.1
20260902083932 82 269 9.0 16.0 0.00 0.06 0.00 86 1011.1
20260902083830 82 231 9.0 16.0 0.00 0.06 0.00 86 1011.1
20260902083730 82 235 10.0 16.0 0.00 0.06 0.00 86 1011.1
20260902083631 82 250 11.0 16.0 0.00 0.06 0.00 86 1011.0
20260902083531 82 247 11.0 16.0 0.00 0.06 0.00 86 1011.1
20260902083432 82 264 10.0 16.0 0.00 0.06 0.00 86 1011.1
20260902083330 82 250 9.0 15.0 0.00 0.06 0.00 86 1011.1
20260902083232 82 221 8.0 15.0 0.00 0.06 0.00 86 1011.1
20260902083132 82 240 8.0 15.0 0.00 0.06 0.00 86 1011.1
20260902083032 82 241 9.0 15.0 0.00 0.06 0.00 86 1011.2
20260902082932 82 212 10.0 14.0 0.00 0.06 0.00 86 1011.2
20260902082832 82 241 11.0 14.0 0.00 0.06 0.00 86 1011.2
20260902082732 82 227 9.0 14.0 0.00 0.06 0.00 86 1011.2
20260902082631 82 202 10.0 15.0 0.00 0.06 0.00 86 1011.3
20260902082532 82 245 9.0 15.0 0.00 0.06 0.00 86 1011.2
20260902082433 82 224 8.0 15.0 0.00 0.06 0.00 86 1011.2
20260902082331 82 250 8.0 15.0 0.00 0.06 0.00 86 1011.1
20260902082232 82 244 8.0 15.0 0.00 0.06 0.00 86 1011.1
20260902082131 82 235 8.0 15.0 0.00 0.06 0.00 86 1011.1
20260902082031 82 261 9.0 15.0 0.00 0.06 0.00 86 1011.1
20260902081933 82 251 9.0 15.0 0.00 0.06 0.00 86 1011.1
20260902081832 82 241 10.0 15.0 0.00 0.06 0.00 86 1011.1
20260902081732 82 226 10.0 15.0 0.00 0.06 0.00 86 1011.1
20260902081631 82 228 9.0 15.0 0.00 0.06 0.00 86 1011.2
20260902081532 82 238 9.0 15.0 0.00 0.06 0.00 85 1011.2
20260902081431 82 230 10.0 15.0 0.00 0.06 0.00 85 1011.1
20260902081331 82 243 11.0 15.0 0.00 0.06 0.00 85 1011.1
20260902081232 82 235 11.0 14.0 0.00 0.06 0.00 85 1011.2
20260902081132 82 234 10.0 14.0 0.00 0.06 0.00 85 1011.2
20260902081030 82 230 9.0 14.0 0.00 0.06 0.00 85 1011.1
20260902080931 82 247 8.0 13.0 0.00 0.06 0.00 85 1011.2
20260902080833 82 233 7.0 13.0 0.00 0.06 0.00 85 1011.1
20260902080732 82 254 8.0 13.0 0.00 0.06 0.00 85 1011.1
20260902080632 82 228 8.0 13.0 0.00 0.06 0.00 85 1011.2
20260902080533 82 217 7.0 13.0 0.00 0.06 0.00 85 1011.2
20260902080432 82 207 8.0 13.0 0.00 0.06 0.00 85 1011.2
20260902080331 82 254 9.0 13.0 0.00 0.06 0.00 85 1011.2
20260902080231 82 221 9.0 13.0 0.00 0.06 0.00 85 1011.2
20260902080131 81 217 9.0 12.0 0.00 0.06 0.00 85 1011.2
20260902080032 82 220 8.0 12.0 0.00 0.06 0.00 84 1011.2
20260902075932 81 221 8.0 11.0 0.00 0.06 0.00 84 1011.2
20260902075832 81 235 7.0 11.0 0.00 0.06 0.00 84 1011.2
20260902075731 81 244 7.0 11.0 0.00 0.06 0.00 84 1011.2
20260902075631 81 245 6.0 11.0 0.00 0.06 0.00 84 1011.2
20260902075533 81 224 6.0 11.0 0.00 0.06 0.00 83 1011.2
20260902075431 81 262 7.0 11.0 0.00 0.06 0.00 83 1011.2
20260902075332 81 252 7.0 11.0 0.00 0.06 0.00 83 1011.2
20260902075230 81 238 7.0 11.0 0.00 0.06 0.00 83 1011.2
20260902075131 81 244 7.0 11.0 0.00 0.06 0.00 83 1011.1
20260902075031 81 244 7.0 11.0 0.00 0.06 0.00 83 1011.2
20260902074932 81 227 7.0 11.0 0.00 0.06 0.00 83 1011.1
20260902074832 82 243 6.0 11.0 0.00 0.06 0.00 82 1011.2
20260902074732 82 234 6.0 12.0 0.00 0.06 0.00 82 1011.2
20260902074632 82 238 6.0 12.0 0.00 0.06 0.00 82 1011.2
20260902074531 82 226 6.0 12.0 0.00 0.06 0.00 82 1011.3
20260902074432 82 244 6.0 12.0 0.00 0.06 0.00 82 1011.2
20260902074334 82 258 7.0 12.0 0.00 0.06 0.00 82 1011.3
20260902074230 82 255 7.0 12.0 0.00 0.06 0.00 82 1011.2
20260902074131 82 227 6.0 12.0 0.00 0.06 0.00 81 1011.2
20260902074031 82 259 7.0 12.0 0.00 0.06 0.00 81 1011.4
20260902073931 82 243 7.0 12.0 0.00 0.06 0.00 81 1011.3
20260902073833 82 251 7.0 12.0 0.00 0.06 0.00 81 1011.3
20260902073732 82 223 6.0 11.0 0.00 0.06 0.00 81 1011.3
20260902073631 82 217 6.0 11.0 0.00 0.06 0.00 81 1011.3
20260902073531 82 244 6.0 11.0 0.00 0.06 0.00 81 1011.3
20260902073432 82 251 7.0 11.0 0.00 0.06 0.00 81 1011.4
20260902073331 82 217 7.0 11.0 0.00 0.06 0.00 80 1011.4
20260902073231 82 219 7.0 11.0 0.00 0.06 0.00 80 1011.3
20260902073134 82 264 7.0 11.0 0.00 0.06 0.00 80 1011.3
20260902073031 82 235 6.0 11.0 0.00 0.06 0.00 80 1011.4
20260902072931 82 206 7.0 11.0 0.00 0.06 0.00 80 1011.4
20260902072832 82 206 7.0 11.0 0.00 0.06 0.00 80 1011.4
20260902072733 82 241 7.0 11.0 0.00 0.06 0.00 81 1011.4
20260902072631 82 257 7.0 11.0 0.00 0.06 0.00 81 1011.5
20260902072531 82 228 6.0 11.0 0.00 0.06 0.00 81 1011.5
20260902072433 82 230 6.0 11.0 0.00 0.06 0.00 81 1011.4
20260902072331 82 243 6.0 11.0 0.00 0.06 0.00 81 1011.5
20260902072230 82 210 6.0 11.0 0.00 0.06 0.00 81 1011.4
20260902072131 82 251 6.0 11.0 0.00 0.06 0.00 81 1011.5
20260902072032 82 241 6.0 11.0 0.00 0.06 0.00 81 1011.5
20260902071931 82 230 6.0 12.0 0.00 0.06 0.00 81 1011.5
20260902071832 82 217 7.0 12.0 0.00 0.06 0.00 81 1011.4
20260902071732 82 261 7.0 12.0 0.00 0.06 0.00 81 1011.5
20260902071631 82 213 7.0 12.0 0.00 0.06 0.00 81 1011.5
20260902071531 82 241 6.0 12.0 0.00 0.06 0.00 81 1011.5
20260902071432 82 257 7.0 12.0 0.00 0.06 0.00 82 1011.5
20260902071332 82 245 6.0 12.0 0.00 0.06 0.00 82 1011.6
20260902071232 82 231 7.0 12.0 0.00 0.06 0.00 82 1011.5
20260902071131 82 265 7.0 12.0 0.00 0.06 0.00 82 1011.5
20260902071033 82 245 8.0 12.0 0.00 0.06 0.00 82 1011.5
20260902070931 82 213 7.0 12.0 0.00 0.06 0.00 82 1011.6
20260902070831 82 292 6.0 11.0 0.00 0.06 0.00 82 1011.4
20260902070731 82 243 6.0 11.0 0.00 0.06 0.00 82 1011.5
20260902070630 82 244 6.0 11.0 0.00 0.06 0.00 82 1011.5
20260902070530 82 258 7.0 11.0 0.00 0.06 0.00 82 1011.5
20260902070431 82 264 7.0 11.0 0.00 0.06 0.00 82 1011.5
20260902070336 82 227 7.0 11.0 0.00 0.06 0.00 82 1011.5
20260902070234 82 223 7.0 11.0 0.00 0.06 0.00 82 1011.4
20260902070132 82 217 7.0 11.0 0.00 0.06 0.00 82 1011.5
20260902070032 81 244 6.0 7.0 0.00 0.06 0.00 82 1011.5
20260902065931 81 217 6.0 7.0 0.00 0.06 0.00 82 1011.4
20260902065831 81 237 5.0 7.0 0.00 0.06 0.00 82 1011.4
20260902065732 81 238 4.0 7.0 0.00 0.06 0.00 82 1011.4
20260902065633 81 227 4.0 9.0 0.00 0.06 0.00 82 1011.4
20260902065532 81 275 4.0 9.0 0.00 0.06 0.00 82 1011.4
20260902065431 81 247 4.0 9.0 0.00 0.06 0.00 82 1011.4
20260902065333 81 251 3.0 9.0 0.00 0.06 0.00 82 1011.4
20260902065231 81 252 3.0 9.0 0.00 0.06 0.00 82 1011.4
20260902065133 82 223 3.0 9.0 0.00 0.06 0.00 82 1011.5
20260902065032 82 268 4.0 9.0 0.00 0.06 0.00 82 1011.5
20260902064932 82 234 5.0 9.0 0.00 0.06 0.00 82 1011.4
20260902064830 82 230 5.0 9.0 0.00 0.06 0.00 82 1011.4
20260902064730 82 231 4.0 9.0 0.00 0.06 0.00 82 1011.4
20260902064628 82 227 4.0 9.0 0.00 0.06 0.00 82 1011.3
20260902064526 82 265 4.0 9.0 0.00 0.06 0.00 82 1011.4
20260902064425 82 237 5.0 9.0 0.00 0.06 0.00 81 1011.4
20260902064325 82 265 5.0 9.0 0.00 0.06 0.00 81 1011.5
20260902064222 82 262 5.0 9.0 0.00 0.06 0.00 81 1011.5
20260902064120 82 258 6.0 9.0 0.00 0.06 0.00 81 1011.5
20260902064018 82 248 5.0 9.0 0.00 0.06 0.00 81 1011.5
20260902063919 82 257 5.0 9.0 0.00 0.06 0.00 81 1011.5
20260902063816 82 243 5.0 9.0 0.00 0.06 0.00 81 1011.6
20260902063716 82 233 5.0 9.0 0.00 0.06 0.00 81 1011.5
20260902063613 82 235 6.0 9.0 0.00 0.06 0.00 81 1011.5
20260902063513 82 238 6.0 9.0 0.00 0.06 0.00 81 1011.5
20260902063409 82 241 6.0 9.0 0.00 0.06 0.00 81 1011.4
20260902063307 82 240 6.0 7.0 0.00 0.06 0.00 81 1011.4
20260902063205 82 237 6.0 7.0 0.00 0.06 0.00 81 1011.5
20260902063103 82 235 6.0 7.0 0.00 0.06 0.00 81 1011.5
20260902063003 82 235 5.0 6.0 0.00 0.06 0.00 81 1011.4
20260902062904 82 252 4.0 6.0 0.00 0.06 0.00 81 1011.5
20260902062802 82 248 4.0 6.0 0.00 0.06 0.00 81 1011.5
20260902062703 82 292 5.0 6.0 0.00 0.06 0.00 81 1011.4
20260902062602 82 237 4.0 7.0 0.00 0.06 0.00 81 1011.5
20260902062503 82 275 4.0 7.0 0.00 0.06 0.00 81 1011.5
20260902062404 82 220 4.0 7.0 0.00 0.06 0.00 81 1011.5
20260902062305 82 207 3.0 7.0 0.00 0.06 0.00 81 1011.5
20260902062202 82 271 4.0 7.0 0.00 0.06 0.00 81 1011.5
20260902062102 82 266 4.0 7.0 0.00 0.06 0.00 81 1011.5
20260902062005 82 276 3.0 7.0 0.00 0.06 0.00 81 1011.5
20260902061903 82 266 3.0 7.0 0.00 0.06 0.00 81 1011.4
20260902061802 82 266 4.0 7.0 0.00 0.06 0.00 81 1011.4
20260902061702 82 292 5.0 7.0 0.00 0.06 0.00 81 1011.4
20260902061602 82 290 5.0 7.0 0.00 0.06 0.00 81 1011.4
20260902061502 82 259 4.0 7.0 0.00 0.06 0.00 81 1011.4
20260902061402 82 286 4.0 7.0 0.00 0.06 0.00 81 1011.4
20260902061304 82 272 4.0 7.0 0.00 0.06 0.00 81 1011.3
20260902061202 82 262 4.0 7.0 0.00 0.06 0.00 81 1011.3
20260902061103 82 265 3.0 7.0 0.00 0.06 0.00 81 1011.3
20260902061005 82 313 4.0 7.0 0.00 0.06 0.00 81 1011.2
20260902060903 82 276 4.0 7.0 0.00 0.06 0.00 81 1011.3
20260902060801 82 296 5.0 9.0 0.00 0.06 0.00 81 1011.2
20260902060701 82 292 5.0 9.0 0.00 0.06 0.00 81 1011.3
20260902060602 82 262 5.0 9.0 0.00 0.06 0.00 81 1011.3
20260902060502 82 283 5.0 9.0 0.00 0.06 0.00 81 1011.2
20260902060402 82 275 4.0 9.0 0.00 0.06 0.00 81 1011.1
20260902060302 82 259 4.0 9.0 0.00 0.06 0.00 81 1011.2
20260902060203 82 262 4.0 9.0 0.00 0.06 0.00 81 1011.2
20260902060105 82 288 4.0 9.0 0.00 0.06 0.00 81 1011.2
20260902060002 82 271 5.0 9.0 0.00 0.06 0.00 81 1011.2
20260902055903 82 269 5.0 9.0 0.00 0.06 0.00 81 1011.2
20260902055802 82 262 5.0 9.0 0.00 0.06 0.00 81 1011.1
20260902055703 82 272 5.0 10.0 0.00 0.06 0.00 81 1011.1